Wetterdaten: Sonntag, 30.10.2022
Datum Zeit Temp. Aussen Temp. o. S. Temp +5cm Feuchte Auss Luftdruck Regen Sonnenschein Regendauer Solar Windben Empfang
30.10.2022 00:00 16,8 C 16,1 C 12,8 C 83 % 1017,8 hPa 0,0 l/m 0 min 0 min 0 W/m 6,4 km/h (2 Bft) 100,00 %
30.10.2022 00:02 16,9 C 16,1 C 12,8 C 83 % 1017,8 hPa 0,0 l/m 0 min 0 min 0 W/m 12,9 km/h (3 Bft) 97,73 %
30.10.2022 00:04 16,9 C 16,1 C 12,8 C 83 % 1017,8 hPa 0,0 l/m 0 min 0 min 0 W/m 6,4 km/h (2 Bft) 100,00 %
30.10.2022 00:08 16,9 C 16,1 C 12,8 C 83 % 1017,8 hPa 0,0 l/m 0 min 0 min 0 W/m 12,9 km/h (3 Bft) 100,00 %
30.10.2022 00:10 16,9 C 16,1 C 12,8 C 82 % 1017,8 hPa 0,0 l/m 0 min 0 min 0 W/m 6,4 km/h (2 Bft) 100,00 %
30.10.2022 00:12 16,9 C 16,1 C 12,8 C 82 % 1017,7 hPa 0,0 l/m 0 min 0 min 0 W/m 12,9 km/h (3 Bft) 97,87 %
30.10.2022 00:14 16,9 C 16,1 C 12,8 C 82 % 1017,7 hPa 0,0 l/m 0 min 0 min 0 W/m 6,4 km/h (2 Bft) 100,00 %
30.10.2022 00:16 17,0 C 16,1 C 12,8 C 82 % 1017,7 hPa 0,0 l/m 0 min 0 min 0 W/m 19,3 km/h (3 Bft) 97,87 %
30.10.2022 00:18 17,0 C 16,1 C 12,8 C 82 % 1017,7 hPa 0,0 l/m 0 min 0 min 0 W/m 16,1 km/h (3 Bft) 100,00 %
30.10.2022 00:20 17,0 C 16,1 C 12,8 C 82 % 1017,7 hPa 0,0 l/m 0 min 0 min 0 W/m 12,9 km/h (3 Bft) 100,00 %
30.10.2022 00:22 17,0 C 16,1 C 12,8 C 82 % 1017,8 hPa 0,0 l/m 0 min 0 min 0 W/m 6,4 km/h (2 Bft) 97,87 %
30.10.2022 00:24 17,0 C 16,1 C 12,8 C 82 % 1017,7 hPa 0,0 l/m 0 min 0 min 0 W/m 6,4 km/h (2 Bft) 100,00 %
30.10.2022 00:26 17,0 C 16,1 C 12,8 C 82 % 1017,8 hPa 0,0 l/m 0 min 0 min 0 W/m 9,7 km/h (2 Bft) 100,00 %
30.10.2022 00:28 17,0 C 16,1 C 12,8 C 82 % 1017,7 hPa 0,0 l/m 0 min 0 min 0 W/m 12,9 km/h (3 Bft) 100,00 %
30.10.2022 00:30 17,0 C 16,1 C 12,8 C 82 % 1017,7 hPa 0,0 l/m 0 min 0 min 0 W/m 6,4 km/h (2 Bft) 97,83 %
30.10.2022 00:32 17,0 C 16,1 C 12,8 C 82 % 1017,7 hPa 0,0 l/m 0 min 0 min 0 W/m 12,9 km/h (3 Bft) 95,74 %
30.10.2022 00:34 17,0 C 16,1 C 12,8 C 82 % 1017,8 hPa 0,0 l/m 0 min 0 min 0 W/m 12,9 km/h (3 Bft) 97,87 %
30.10.2022 00:36 17,0 C 16,1 C 12,8 C 81 % 1017,7 hPa 0,0 l/m 0 min 0 min 0 W/m 12,9 km/h (3 Bft) 98,31 %
30.10.2022 00:38 17,0 C 16,1 C 12,8 C 81 % 1017,7 hPa 0,0 l/m 0 min 0 min 0 W/m 16,1 km/h (3 Bft) 97,14 %
30.10.2022 00:40 17,0 C 16,1 C 12,8 C 81 % 1017,8 hPa 0,0 l/m 0 min 0 min 0 W/m 12,9 km/h (3 Bft) 97,83 %
30.10.2022 00:42 17,0 C 16,1 C 12,8 C 81 % 1017,7 hPa 0,0 l/m 0 min 0 min 0 W/m 12,9 km/h (3 Bft) 97,87 %
30.10.2022 00:44 17,0 C 16,1 C 12,8 C 81 % 1017,7 hPa 0,0 l/m 0 min 0 min 0 W/m 6,4 km/h (2 Bft) 97,87 %
30.10.2022 00:46 17,0 C 16,1 C 12,8 C 81 % 1017,7 hPa 0,0 l/m 0 min 0 min 0 W/m 19,3 km/h (3 Bft) 97,87 %
30.10.2022 00:48 17,0 C 16,1 C 12,8 C 81 % 1017,7 hPa 0,0 l/m 0 min 0 min 0 W/m 16,1 km/h (3 Bft) 97,87 %
30.10.2022 00:50 17,0 C 16,1 C 12,8 C 81 % 1017,7 hPa 0,0 l/m 0 min 0 min 0 W/m 12,9 km/h (3 Bft) 97,87 %
30.10.2022 00:52 17,0 C 16,1 C 12,8 C 81 % 1017,7 hPa 0,0 l/m 0 min 0 min 0 W/m 9,7 km/h (2 Bft) 97,83 %
30.10.2022 00:54 17,0 C 16,1 C 12,2 C 81 % 1017,7 hPa 0,0 l/m 0 min 0 min 0 W/m 12,9 km/h (3 Bft) 95,74 %
30.10.2022 00:56 17,0 C 16,1 C 12,2 C 81 % 1017,7 hPa 0,0 l/m 0 min 0 min 0 W/m 12,9 km/h (3 Bft) 95,74 %
30.10.2022 00:58 17,0 C 16,1 C 12,2 C 81 % 1017,7 hPa 0,0 l/m 0 min 0 min 0 W/m 12,9 km/h (3 Bft) 93,62 %
30.10.2022 01:00 17,0 C 16,1 C 12,2 C 81 % 1017,7 hPa 0,0 l/m 0 min 0 min 0 W/m 16,1 km/h (3 Bft) 97,87 %
30.10.2022 01:02 17,0 C 16,1 C 12,2 C 81 % 1017,6 hPa 0,0 l/m 0 min 0 min 0 W/m 6,4 km/h (2 Bft) 95,74 %
30.10.2022 01:04 16,9 C 16,1 C 12,2 C 81 % 1017,6 hPa 0,0 l/m 0 min 0 min 0 W/m 6,4 km/h (2 Bft) 95,74 %
30.10.2022 01:06 16,9 C 16,1 C 12,2 C 81 % 1017,6 hPa 0,0 l/m 0 min 0 min 0 W/m 12,9 km/h (3 Bft) 94,83 %
30.10.2022 01:08 16,9 C 16,1 C 12,2 C 82 % 1017,6 hPa 0,0 l/m 0 min 0 min 0 W/m 12,9 km/h (3 Bft) 94,29 %
30.10.2022 01:10 16,9 C 16,1 C 12,2 C 82 % 1017,6 hPa 0,0 l/m 0 min 0 min 0 W/m 16,1 km/h (3 Bft) 93,62 %
30.10.2022 01:12 16,9 C 16,1 C 12,2 C 82 % 1017,6 hPa 0,0 l/m 0 min 0 min 0 W/m 12,9 km/h (3 Bft) 93,62 %
30.10.2022 01:14 16,9 C 16,1 C 12,2 C 82 % 1017,6 hPa 0,0 l/m 0 min 0 min 0 W/m 6,4 km/h (2 Bft) 91,49 %
30.10.2022 01:16 16,9 C 16,1 C 12,2 C 82 % 1017,6 hPa 0,0 l/m 0 min 0 min 0 W/m 6,4 km/h (2 Bft) 93,62 %
30.10.2022 01:18 16,8 C 16,1 C 12,2 C 82 % 1017,7 hPa 0,0 l/m 0 min 0 min 0 W/m 6,4 km/h (2 Bft) 91,30 %
30.10.2022 01:20 16,8 C 15,6 C 12,2 C 82 % 1017,6 hPa 0,0 l/m 0 min 0 min 0 W/m 12,9 km/h (3 Bft) 93,62 %
30.10.2022 01:22 16,8 C 15,6 C 12,2 C 82 % 1017,7 hPa 0,0 l/m 0 min 0 min 0 W/m 6,4 km/h (2 Bft) 95,74 %
30.10.2022 01:24 16,8 C 15,6 C 12,2 C 82 % 1017,6 hPa 0,0 l/m 0 min 0 min 0 W/m 6,4 km/h (2 Bft) 95,74 %
30.10.2022 01:26 16,8 C 15,6 C 12,2 C 82 % 1017,7 hPa 0,0 l/m 0 min 0 min 0 W/m 12,9 km/h (3 Bft) 95,74 %
30.10.2022 01:28 16,7 C 15,6 C 12,2 C 82 % 1017,6 hPa 0,0 l/m 0 min 0 min 0 W/m 12,9 km/h (3 Bft) 95,65 %
30.10.2022 01:30 16,7 C 15,6 C 12,2 C 82 % 1017,7 hPa 0,0 l/m 0 min 0 min 0 W/m 6,4 km/h (2 Bft) 95,74 %
30.10.2022 01:32 16,7 C 15,6 C 12,2 C 82 % 1017,6 hPa 0,0 l/m 0 min 0 min 0 W/m 6,4 km/h (2 Bft) 91,49 %
30.10.2022 01:34 16,7 C 15,6 C 12,2 C 82 % 1017,7 hPa 0,0 l/m 0 min 0 min 0 W/m 6,4 km/h (2 Bft) 95,74 %
30.10.2022 01:36 16,7 C 15,6 C 12,2 C 82 % 1017,7 hPa 0,0 l/m 0 min 0 min 0 W/m 12,9 km/h (3 Bft) 94,92 %
30.10.2022 01:38 16,7 C 15,6 C 12,2 C 82 % 1017,7 hPa 0,0 l/m 0 min 0 min 0 W/m 6,4 km/h (2 Bft) 97,14 %
30.10.2022 01:40 16,6 C 15,6 C 12,2 C 83 % 1017,7 hPa 0,0 l/m 0 min 0 min 0 W/m 6,4 km/h (2 Bft) 95,74 %
30.10.2022 01:42 16,6 C 15,6 C 12,2 C 83 % 1017,7 hPa 0,0 l/m 0 min 0 min 0 W/m 3,2 km/h (1 Bft) 95,65 %
30.10.2022 01:44 16,6 C 15,6 C 11,7 C 83 % 1017,7 hPa 0,0 l/m 0 min 0 min 0 W/m 3,2 km/h (1 Bft) 97,87 %
30.10.2022 01:46 16,6 C 15,6 C 11,7 C 83 % 1017,8 hPa 0,0 l/m 0 min 0 min 0 W/m 9,7 km/h (2 Bft) 100,00 %
30.10.2022 01:48 16,5 C 15,6 C 11,7 C 83 % 1017,7 hPa 0,0 l/m 0 min 0 min 0 W/m 6,4 km/h (2 Bft) 97,87 %
30.10.2022 01:50 16,5 C 15,6 C 11,7 C 83 % 1017,8 hPa 0,0 l/m 0 min 0 min 0 W/m 6,4 km/h (2 Bft) 100,00 %
30.10.2022 01:52 16,5 C 15,6 C 11,7 C 83 % 1017,8 hPa 0,0 l/m 0 min 0 min 0 W/m 9,7 km/h (2 Bft) 97,83 %
30.10.2022 01:54 16,4 C 15,6 C 11,7 C 83 % 1017,8 hPa 0,0 l/m 0 min 0 min 0 W/m 6,4 km/h (2 Bft) 100,00 %
30.10.2022 01:56 16,4 C 15,6 C 11,7 C 83 % 1017,8 hPa 0,0 l/m 0 min 0 min 0 W/m 6,4 km/h (2 Bft) 100,00 %
30.10.2022 01:58 16,4 C 15,6 C 11,7 C 83 % 1017,8 hPa 0,0 l/m 0 min 0 min 0 W/m 3,2 km/h (1 Bft) 100,00 %
30.10.2022 02:00 16,4 C 15,6 C 11,7 C 83 % 1017,8 hPa 0,0 l/m 0 min 0 min 0 W/m 6,4 km/h (2 Bft) 97,87 %
30.10.2022 02:02 16,4 C 15,6 C 11,7 C 84 % 1017,8 hPa 0,0 l/m 0 min 0 min 0 W/m 6,4 km/h (2 Bft) 95,74 %
30.10.2022 02:04 16,4 C 15,6 C 11,7 C 84 % 1017,8 hPa 0,0 l/m 0 min 0 min 0 W/m 16,1 km/h (3 Bft) 97,83 %
30.10.2022 02:06 16,4 C 15,6 C 11,7 C 84 % 1017,8 hPa 0,0 l/m 0 min 0 min 0 W/m 6,4 km/h (2 Bft) 98,31 %
30.10.2022 02:08 16,4 C 15,6 C 11,7 C 84 % 1017,8 hPa 0,0 l/m 0 min 0 min 0 W/m 6,4 km/h (2 Bft) 100,00 %
30.10.2022 02:10 16,3 C 15,6 C 11,7 C 84 % 1017,8 hPa 0,0 l/m 0 min 0 min 0 W/m 6,4 km/h (2 Bft) 100,00 %
30.10.2022 02:12 16,3 C 15,6 C 11,7 C 84 % 1017,8 hPa 0,0 l/m 0 min 0 min 0 W/m 12,9 km/h (3 Bft) 97,87 %
30.10.2022 02:14 16,3 C 15,6 C 11,7 C 84 % 1017,8 hPa 0,0 l/m 0 min 0 min 0 W/m 12,9 km/h (3 Bft) 100,00 %
30.10.2022 02:16 16,3 C 15,6 C 11,7 C 84 % 1017,8 hPa 0,0 l/m 0 min 0 min 0 W/m 12,9 km/h (3 Bft) 100,00 %
30.10.2022 02:18 16,3 C 15,6 C 11,7 C 84 % 1017,8 hPa 0,0 l/m 0 min 0 min 0 W/m 6,4 km/h (2 Bft) 100,00 %
30.10.2022 02:20 16,3 C 15,0 C 11,7 C 84 % 1017,8 hPa 0,0 l/m 0 min 0 min 0 W/m 6,4 km/h (2 Bft) 100,00 %
30.10.2022 02:22 16,2 C 15,0 C 11,7 C 85 % 1017,9 hPa 0,0 l/m 0 min 0 min 0 W/m 6,4 km/h (2 Bft) 100,00 %
30.10.2022 02:24 16,2 C 15,0 C 11,7 C 85 % 1017,8 hPa 0,0 l/m 0 min 0 min 0 W/m 6,4 km/h (2 Bft) 100,00 %
30.10.2022 02:26 16,2 C 15,0 C 11,7 C 85 % 1017,8 hPa 0,0 l/m 0 min 0 min 0 W/m 3,2 km/h (1 Bft) 100,00 %
30.10.2022 02:28 16,2 C 15,0 C 11,7 C 85 % 1017,8 hPa 0,0 l/m 0 min 0 min 0 W/m 6,4 km/h (2 Bft) 100,00 %
30.10.2022 02:30 16,2 C 15,0 C 11,7 C 85 % 1017,7 hPa 0,0 l/m 0 min 0 min 0 W/m 6,4 km/h (2 Bft) 100,00 %
30.10.2022 02:32 16,2 C 15,0 C 11,7 C 85 % 1017,7 hPa 0,0 l/m 0 min 0 min 0 W/m 12,9 km/h (3 Bft) 97,87 %
30.10.2022 02:34 16,1 C 15,0 C 11,7 C 85 % 1017,8 hPa 0,0 l/m 0 min 0 min 0 W/m 6,4 km/h (2 Bft) 97,87 %
30.10.2022 02:36 16,1 C 15,0 C 11,7 C 85 % 1017,8 hPa 0,0 l/m 0 min 0 min 0 W/m 6,4 km/h (2 Bft) 100,00 %
30.10.2022 02:38 16,1 C 15,0 C 11,7 C 85 % 1017,8 hPa 0,0 l/m 0 min 0 min 0 W/m 6,4 km/h (2 Bft) 100,00 %
30.10.2022 02:40 16,1 C 15,0 C 11,7 C 85 % 1017,8 hPa 0,0 l/m 0 min 0 min 0 W/m 12,9 km/h (3 Bft) 100,00 %
30.10.2022 02:42 16,1 C 15,0 C 11,7 C 85 % 1017,8 hPa 0,0 l/m 0 min 0 min 0 W/m 12,9 km/h (3 Bft) 100,00 %
30.10.2022 02:44 16,0 C 15,0 C 11,7 C 85 % 1017,8 hPa 0,0 l/m 0 min 0 min 0 W/m 6,4 km/h (2 Bft) 100,00 %
30.10.2022 02:46 16,0 C 15,0 C 11,7 C 85 % 1017,8 hPa 0,0 l/m 0 min 0 min 0 W/m 3,2 km/h (1 Bft) 100,00 %
30.10.2022 02:48 15,9 C 15,0 C 11,7 C 86 % 1017,8 hPa 0,0 l/m 0 min 0 min 0 W/m 6,4 km/h (2 Bft) 100,00 %
30.10.2022 02:50 15,9 C 15,0 C 11,1 C 86 % 1017,8 hPa 0,0 l/m 0 min 0 min 0 W/m 6,4 km/h (2 Bft) 97,83 %
30.10.2022 02:52 15,9 C 15,0 C 11,1 C 86 % 1017,8 hPa 0,0 l/m 0 min 0 min 0 W/m 6,4 km/h (2 Bft) 97,87 %
30.10.2022 02:54 15,9 C 15,0 C 11,1 C 86 % 1017,8 hPa 0,0 l/m 0 min 0 min 0 W/m 3,2 km/h (1 Bft) 100,00 %
30.10.2022 02:56 15,9 C 14,4 C 11,1 C 86 % 1017,8 hPa 0,0 l/m 0 min 0 min 0 W/m 6,4 km/h (2 Bft) 100,00 %
30.10.2022 02:58 15,8 C 14,4 C 11,1 C 86 % 1017,9 hPa 0,0 l/m 0 min 0 min 0 W/m 3,2 km/h (1 Bft) 100,00 %
30.10.2022 02:00 15,8 C 14,4 C 11,1 C 86 % 1017,9 hPa 0,0 l/m 0 min 0 min 0 W/m 0,0 km/h (0 Bft) 97,87 %
30.10.2022 02:04 15,8 C 14,4 C 11,1 C 86 % 1017,8 hPa 0,0 l/m 0 min 0 min 0 W/m 3,2 km/h (1 Bft) 95,79 %
30.10.2022 02:06 15,8 C 14,4 C 11,1 C 86 % 1017,9 hPa 0,0 l/m 0 min 0 min 0 W/m 6,4 km/h (2 Bft) 95,74 %
30.10.2022 02:08 15,7 C 14,4 C 11,1 C 86 % 1017,8 hPa 0,0 l/m 0 min 0 min 0 W/m 3,2 km/h (1 Bft) 97,87 %
30.10.2022 02:10 15,7 C 14,4 C 11,1 C 86 % 1017,8 hPa 0,0 l/m 0 min 0 min 0 W/m 3,2 km/h (1 Bft) 97,87 %
30.10.2022 02:12 15,7 C 14,4 C 11,1 C 86 % 1017,8 hPa 0,0 l/m 0 min 0 min 0 W/m 6,4 km/h (2 Bft) 93,62 %
30.10.2022 02:14 15,7 C 14,4 C 11,1 C 87 % 1017,9 hPa 0,0 l/m 0 min 0 min 0 W/m 3,2 km/h (1 Bft) 97,83 %
30.10.2022 02:16 15,7 C 14,4 C 11,1 C 87 % 1017,8 hPa 0,0 l/m 0 min 0 min 0 W/m 3,2 km/h (1 Bft) 95,74 %
30.10.2022 02:18 15,6 C 14,4 C 11,1 C 87 % 1017,8 hPa 0,0 l/m 0 min 0 min 0 W/m 3,2 km/h (1 Bft) 97,87 %
30.10.2022 02:20 15,6 C 14,4 C 11,1 C 87 % 1017,8 hPa 0,0 l/m 0 min 0 min 0 W/m 3,2 km/h (1 Bft) 95,74 %
30.10.2022 02:22 15,6 C 14,4 C 11,1 C 87 % 1017,7 hPa 0,0 l/m 0 min 0 min 0 W/m 3,2 km/h (1 Bft) 95,74 %
30.10.2022 02:24 15,6 C 14,4 C 11,1 C 87 % 1017,7 hPa 0,0 l/m 0 min 0 min 0 W/m 3,2 km/h (1 Bft) 95,74 %
30.10.2022 02:26 15,6 C 14,4 C 11,1 C 87 % 1017,7 hPa 0,0 l/m 0 min 0 min 0 W/m 0,0 km/h (0 Bft) 95,65 %
30.10.2022 02:28 15,5 C 14,4 C 11,1 C 87 % 1017,7 hPa 0,0 l/m 0 min 0 min 0 W/m 3,2 km/h (1 Bft) 95,74 %
30.10.2022 02:30 15,5 C 14,4 C 11,1 C 87 % 1017,7 hPa 0,0 l/m 0 min 0 min 0 W/m 3,2 km/h (1 Bft) 95,74 %
30.10.2022 02:32 15,5 C 14,4 C 11,1 C 87 % 1017,6 hPa 0,0 l/m 0 min 0 min 0 W/m 3,2 km/h (1 Bft) 95,74 %
30.10.2022 02:34 15,4 C 14,4 C 11,1 C 87 % 1017,6 hPa 0,0 l/m 0 min 0 min 0 W/m 3,2 km/h (1 Bft) 93,62 %
30.10.2022 02:36 15,4 C 14,4 C 11,1 C 87 % 1017,6 hPa 0,0 l/m 0 min 0 min 0 W/m 3,2 km/h (1 Bft) 95,74 %
30.10.2022 02:38 15,4 C 14,4 C 11,1 C 87 % 1017,6 hPa 0,0 l/m 0 min 0 min 0 W/m 6,4 km/h (2 Bft) 97,83 %
30.10.2022 02:40 15,4 C 14,4 C 11,1 C 88 % 1017,6 hPa 0,0 l/m 0 min 0 min 0 W/m 6,4 km/h (2 Bft) 97,87 %
30.10.2022 02:42 15,3 C 14,4 C 11,1 C 88 % 1017,6 hPa 0,0 l/m 0 min 0 min 0 W/m 12,9 km/h (3 Bft) 97,87 %
30.10.2022 02:44 15,3 C 14,4 C 11,1 C 88 % 1017,6 hPa 0,0 l/m 0 min 0 min 0 W/m 6,4 km/h (2 Bft) 97,87 %
30.10.2022 02:46 15,3 C 14,4 C 11,1 C 88 % 1017,7 hPa 0,0 l/m 0 min 0 min 0 W/m 6,4 km/h (2 Bft) 95,74 %
30.10.2022 02:48 15,3 C 14,4 C 11,1 C 88 % 1017,6 hPa 0,0 l/m 0 min 0 min 0 W/m 6,4 km/h (2 Bft) 97,83 %
30.10.2022 02:50 15,3 C 13,9 C 10,6 C 88 % 1017,7 hPa 0,0 l/m 0 min 0 min 0 W/m 3,2 km/h (1 Bft) 95,74 %
30.10.2022 02:52 15,2 C 13,9 C 10,6 C 88 % 1017,6 hPa 0,0 l/m 0 min 0 min 0 W/m 3,2 km/h (1 Bft) 95,74 %
30.10.2022 02:54 15,2 C 13,9 C 10,6 C 88 % 1017,6 hPa 0,0 l/m 0 min 0 min 0 W/m 3,2 km/h (1 Bft) 95,74 %
30.10.2022 02:56 15,2 C 13,9 C 10,6 C 88 % 1017,6 hPa 0,0 l/m 0 min 0 min 0 W/m 6,4 km/h (2 Bft) 95,74 %
30.10.2022 02:58 15,2 C 13,9 C 10,6 C 88 % 1017,6 hPa 0,0 l/m 0 min 0 min 0 W/m 6,4 km/h (2 Bft) 97,87 %
30.10.2022 03:00 15,1 C 13,9 C 10,6 C 89 % 1017,6 hPa 0,0 l/m 0 min 0 min 0 W/m 6,4 km/h (2 Bft) 95,74 %
30.10.2022 03:02 15,1 C 13,9 C 10,6 C 89 % 1017,5 hPa 0,0 l/m 0 min 0 min 0 W/m 12,9 km/h (3 Bft) 93,48 %
30.10.2022 03:04 15,1 C 13,9 C 10,6 C 89 % 1017,5 hPa 0,0 l/m 0 min 0 min 0 W/m 6,4 km/h (2 Bft) 93,62 %
30.10.2022 03:06 15,1 C 13,9 C 10,6 C 89 % 1017,5 hPa 0,0 l/m 0 min 0 min 0 W/m 6,4 km/h (2 Bft) 97,87 %
30.10.2022 03:08 15,0 C 13,9 C 10,6 C 89 % 1017,6 hPa 0,0 l/m 0 min 0 min 0 W/m 3,2 km/h (1 Bft) 95,74 %
30.10.2022 03:10 15,0 C 13,9 C 10,6 C 89 % 1017,5 hPa 0,0 l/m 0 min 0 min 0 W/m 3,2 km/h (1 Bft) 97,87 %
30.10.2022 03:12 15,0 C 13,9 C 10,6 C 89 % 1017,5 hPa 0,0 l/m 0 min 0 min 0 W/m 3,2 km/h (1 Bft) 97,87 %
30.10.2022 03:14 14,9 C 13,9 C 10,6 C 89 % 1017,6 hPa 0,0 l/m 0 min 0 min 0 W/m 3,2 km/h (1 Bft) 97,83 %
30.10.2022 03:16 14,9 C 13,9 C 10,6 C 89 % 1017,6 hPa 0,0 l/m 0 min 0 min 0 W/m 3,2 km/h (1 Bft) 95,74 %
30.10.2022 03:18 14,9 C 13,9 C 10,6 C 89 % 1017,6 hPa 0,0 l/m 0 min 0 min 0 W/m 6,4 km/h (2 Bft) 97,87 %
30.10.2022 03:20 14,9 C 13,9 C 10,6 C 89 % 1017,6 hPa 0,0 l/m 0 min 0 min 0 W/m 3,2 km/h (1 Bft) 97,87 %
30.10.2022 03:22 14,9 C 13,9 C 10,6 C 89 % 1017,6 hPa 0,0 l/m 0 min 0 min 0 W/m 3,2 km/h (1 Bft) 93,62 %
30.10.2022 03:24 14,8 C 13,9 C 10,6 C 89 % 1017,6 hPa 0,0 l/m 0 min 0 min 0 W/m 3,2 km/h (1 Bft) 97,87 %
30.10.2022 03:26 14,8 C 13,9 C 10,6 C 89 % 1017,7 hPa 0,0 l/m 0 min 0 min 0 W/m 3,2 km/h (1 Bft) 97,83 %
30.10.2022 03:28 14,8 C 13,9 C 10,6 C 89 % 1017,7 hPa 0,0 l/m 0 min 0 min 0 W/m 3,2 km/h (1 Bft) 95,74 %
30.10.2022 03:30 14,8 C 13,3 C 10,6 C 89 % 1017,7 hPa 0,0 l/m 0 min 0 min 0 W/m 3,2 km/h (1 Bft) 97,87 %
30.10.2022 03:32 14,8 C 13,3 C 10,6 C 89 % 1017,6 hPa 0,0 l/m 0 min 0 min 0 W/m 3,2 km/h (1 Bft) 97,87 %
30.10.2022 03:34 14,7 C 13,3 C 10,0 C 89 % 1017,6 hPa 0,0 l/m 0 min 0 min 0 W/m 0,0 km/h (0 Bft) 97,87 %
30.10.2022 03:36 14,7 C 13,3 C 10,0 C 89 % 1017,7 hPa 0,0 l/m 0 min 0 min 0 W/m 3,2 km/h (1 Bft) 97,83 %
30.10.2022 03:38 14,7 C 13,3 C 10,0 C 89 % 1017,7 hPa 0,0 l/m 0 min 0 min 0 W/m 0,0 km/h (0 Bft) 95,74 %
30.10.2022 03:40 14,7 C 13,3 C 10,0 C 89 % 1017,8 hPa 0,0 l/m 0 min 0 min 0 W/m 0,0 km/h (0 Bft) 97,87 %
30.10.2022 03:42 14,6 C 13,3 C 10,0 C 89 % 1017,7 hPa 0,0 l/m 0 min 0 min 0 W/m 0,0 km/h (0 Bft) 95,74 %
30.10.2022 03:44 14,6 C 12,8 C 9,4 C 89 % 1017,8 hPa 0,0 l/m 0 min 0 min 0 W/m 0,0 km/h (0 Bft) 100,00 %
30.10.2022 03:46 14,6 C 12,8 C 9,4 C 89 % 1017,7 hPa 0,0 l/m 0 min 0 min 0 W/m 0,0 km/h (0 Bft) 100,00 %
30.10.2022 03:48 14,6 C 12,8 C 9,4 C 89 % 1017,7 hPa 0,0 l/m 0 min 0 min 0 W/m 0,0 km/h (0 Bft) 100,00 %
30.10.2022 03:50 14,6 C 12,8 C 9,4 C 89 % 1017,8 hPa 0,0 l/m 0 min 0 min 0 W/m 3,2 km/h (1 Bft) 97,87 %
30.10.2022 03:52 14,5 C 12,8 C 9,4 C 89 % 1017,7 hPa 0,0 l/m 0 min 0 min 0 W/m 0,0 km/h (0 Bft) 95,74 %
30.10.2022 03:54 14,4 C 12,8 C 9,4 C 89 % 1017,7 hPa 0,0 l/m 0 min 0 min 0 W/m 0,0 km/h (0 Bft) 93,62 %
30.10.2022 03:56 14,4 C 12,8 C 9,4 C 89 % 1017,6 hPa 0,0 l/m 0 min 0 min 0 W/m 0,0 km/h (0 Bft) 97,87 %
30.10.2022 03:58 14,3 C 12,8 C 9,4 C 89 % 1017,7 hPa 0,0 l/m 0 min 0 min 0 W/m 0,0 km/h (0 Bft) 97,87 %
30.10.2022 04:00 14,3 C 12,8 C 9,4 C 89 % 1017,6 hPa 0,0 l/m 0 min 0 min 0 W/m 0,0 km/h (0 Bft) 95,65 %
30.10.2022 04:02 14,3 C 12,2 C 9,4 C 89 % 1017,7 hPa 0,0 l/m 0 min 0 min 0 W/m 0,0 km/h (0 Bft) 95,45 %
30.10.2022 04:04 14,3 C 12,2 C 9,4 C 89 % 1017,7 hPa 0,0 l/m 0 min 0 min 0 W/m 0,0 km/h (0 Bft) 100,00 %
30.10.2022 04:06 14,3 C 12,2 C 8,9 C 90 % 1017,8 hPa 0,0 l/m 0 min 0 min 0 W/m 0,0 km/h (0 Bft) 97,87 %
30.10.2022 04:08 14,3 C 12,2 C 9,4 C 90 % 1017,7 hPa 0,0 l/m 0 min 0 min 0 W/m 0,0 km/h (0 Bft) 97,87 %
30.10.2022 04:10 14,2 C 12,2 C 8,9 C 90 % 1017,8 hPa 0,0 l/m 0 min 0 min 0 W/m 0,0 km/h (0 Bft) 97,87 %
30.10.2022 04:12 14,1 C 12,2 C 8,9 C 90 % 1017,8 hPa 0,0 l/m 0 min 0 min 0 W/m 0,0 km/h (0 Bft) 97,83 %
30.10.2022 04:14 14,1 C 12,2 C 8,9 C 90 % 1017,8 hPa 0,0 l/m 0 min 0 min 0 W/m 0,0 km/h (0 Bft) 97,87 %
30.10.2022 04:16 14,1 C 12,2 C 8,9 C 90 % 1017,8 hPa 0,0 l/m 0 min 0 min 0 W/m 0,0 km/h (0 Bft) 97,87 %
30.10.2022 04:18 14,1 C 12,2 C 8,9 C 90 % 1017,9 hPa 0,0 l/m 0 min 0 min 0 W/m 0,0 km/h (0 Bft) 93,62 %
30.10.2022 04:20 14,0 C 12,2 C 8,9 C 90 % 1017,8 hPa 0,0 l/m 0 min 0 min 0 W/m 0,0 km/h (0 Bft) 97,87 %
30.10.2022 04:22 13,9 C 12,2 C 8,9 C 90 % 1017,9 hPa 0,0 l/m 0 min 0 min 0 W/m 0,0 km/h (0 Bft) 100,00 %
30.10.2022 04:24 13,9 C 12,2 C 8,9 C 90 % 1017,8 hPa 0,0 l/m 0 min 0 min 0 W/m 0,0 km/h (0 Bft) 100,00 %
30.10.2022 04:26 13,9 C 12,2 C 8,9 C 90 % 1017,8 hPa 0,0 l/m 0 min 0 min 0 W/m 0,0 km/h (0 Bft) 100,00 %
30.10.2022 04:28 13,8 C 11,7 C 8,9 C 90 % 1017,8 hPa 0,0 l/m 0 min 0 min 0 W/m 0,0 km/h (0 Bft) 100,00 %
30.10.2022 04:30 13,8 C 11,7 C 8,9 C 90 % 1017,8 hPa 0,0 l/m 0 min 0 min 0 W/m 0,0 km/h (0 Bft) 100,00 %
30.10.2022 04:32 13,8 C 11,7 C 8,9 C 90 % 1017,9 hPa 0,0 l/m 0 min 0 min 0 W/m 0,0 km/h (0 Bft) 100,00 %
30.10.2022 04:34 13,7 C 11,7 C 8,9 C 90 % 1017,9 hPa 0,0 l/m 0 min 0 min 0 W/m 0,0 km/h (0 Bft) 97,87 %
30.10.2022 04:36 13,7 C 11,7 C 8,9 C 90 % 1017,9 hPa 0,0 l/m 0 min 0 min 0 W/m 0,0 km/h (0 Bft) 97,83 %
30.10.2022 04:38 13,6 C 11,7 C 8,3 C 90 % 1017,9 hPa 0,0 l/m 0 min 0 min 0 W/m 0,0 km/h (0 Bft) 100,00 %
30.10.2022 04:40 13,6 C 11,7 C 8,3 C 90 % 1017,9 hPa 0,0 l/m 0 min 0 min 0 W/m 0,0 km/h (0 Bft) 95,74 %
30.10.2022 04:42 13,6 C 11,7 C 8,3 C 91 % 1017,8 hPa 0,0 l/m 0 min 0 min 0 W/m 0,0 km/h (0 Bft) 100,00 %
30.10.2022 04:44 13,5 C 11,7 C 8,3 C 90 % 1017,8 hPa 0,0 l/m 0 min 0 min 0 W/m 0,0 km/h (0 Bft) 95,74 %
30.10.2022 04:46 13,4 C 11,7 C 8,3 C 90 % 1017,8 hPa 0,0 l/m 0 min 0 min 0 W/m 0,0 km/h (0 Bft) 97,87 %
30.10.2022 04:48 13,4 C 11,7 C 8,3 C 91 % 1017,9 hPa 0,0 l/m 0 min 0 min 0 W/m 0,0 km/h (0 Bft) 100,00 %
30.10.2022 04:50 13,4 C 11,7 C 8,3 C 91 % 1017,9 hPa 0,0 l/m 0 min 0 min 0 W/m 0,0 km/h (0 Bft) 100,00 %
30.10.2022 04:52 13,3 C 11,7 C 8,3 C 91 % 1017,9 hPa 0,0 l/m 0 min 0 min 0 W/m 0,0 km/h (0 Bft) 95,74 %
30.10.2022 04:54 13,3 C 11,7 C 8,3 C 91 % 1017,9 hPa 0,0 l/m 0 min 0 min 0 W/m 0,0 km/h (0 Bft) 97,87 %
30.10.2022 04:56 13,3 C 11,7 C 8,3 C 91 % 1017,9 hPa 0,0 l/m 0 min 0 min 0 W/m 0,0 km/h (0 Bft) 97,87 %
30.10.2022 04:58 13,2 C 11,7 C 8,3 C 91 % 1017,9 hPa 0,0 l/m 0 min 0 min 0 W/m 0,0 km/h (0 Bft) 95,74 %
30.10.2022 05:00 13,2 C 11,7 C 8,3 C 91 % 1017,9 hPa 0,0 l/m 0 min 0 min 0 W/m 0,0 km/h (0 Bft) 97,83 %
30.10.2022 05:02 13,2 C 11,1 C 8,3 C 91 % 1017,9 hPa 0,0 l/m 0 min 0 min 0 W/m 0,0 km/h (0 Bft) 55,32 %
30.10.2022 05:04 13,1 C 11,1 C 8,3 C 91 % 1017,9 hPa 0,0 l/m 0 min 0 min 0 W/m 0,0 km/h (0 Bft) 95,74 %
30.10.2022 05:06 13,1 C 11,1 C 8,3 C 91 % 1017,9 hPa 0,0 l/m 0 min 0 min 0 W/m 0,0 km/h (0 Bft) 95,74 %
30.10.2022 05:08 13,1 C 11,1 C 8,3 C 92 % 1017,9 hPa 0,0 l/m 0 min 0 min 0 W/m 0,0 km/h (0 Bft) 95,74 %
30.10.2022 05:10 13,0 C 11,7 C 8,3 C 92 % 1017,9 hPa 0,0 l/m 0 min 0 min 0 W/m 0,0 km/h (0 Bft) 93,62 %
30.10.2022 05:12 13,0 C 11,7 C 8,3 C 92 % 1017,9 hPa 0,0 l/m 0 min 0 min 0 W/m 0,0 km/h (0 Bft) 97,83 %
30.10.2022 05:14 12,9 C 11,7 C 8,3 C 92 % 1018,0 hPa 0,0 l/m 0 min 0 min 0 W/m 0,0 km/h (0 Bft) 97,87 %
30.10.2022 05:16 12,9 C 11,7 C 8,3 C 92 % 1017,9 hPa 0,0 l/m 0 min 0 min 0 W/m 0,0 km/h (0 Bft) 95,74 %
30.10.2022 05:18 12,9 C 11,1 C 8,3 C 92 % 1017,9 hPa 0,0 l/m 0 min 0 min 0 W/m 0,0 km/h (0 Bft) 97,87 %
30.10.2022 05:20 12,8 C 11,1 C 8,3 C 92 % 1017,9 hPa 0,0 l/m 0 min 0 min 0 W/m 0,0 km/h (0 Bft) 95,74 %
30.10.2022 05:22 12,8 C 11,7 C 8,3 C 92 % 1017,9 hPa 0,0 l/m 0 min 0 min 0 W/m 0,0 km/h (0 Bft) 95,74 %
30.10.2022 05:24 12,8 C 11,7 C 8,3 C 92 % 1018,0 hPa 0,0 l/m 0 min 0 min 0 W/m 0,0 km/h (0 Bft) 97,83 %
30.10.2022 05:26 12,8 C 11,7 C 8,3 C 92 % 1018,0 hPa 0,0 l/m 0 min 0 min 0 W/m 0,0 km/h (0 Bft) 97,87 %
30.10.2022 05:28 12,8 C 11,7 C 8,3 C 93 % 1017,9 hPa 0,0 l/m 0 min 0 min 0 W/m 0,0 km/h (0 Bft) 95,74 %
30.10.2022 05:30 12,8 C 11,7 C 8,3 C 93 % 1017,9 hPa 0,0 l/m 0 min 0 min 0 W/m 0,0 km/h (0 Bft) 97,87 %
30.10.2022 05:32 12,7 C 11,7 C 8,3 C 93 % 1017,9 hPa 0,0 l/m 0 min 0 min 0 W/m 0,0 km/h (0 Bft) 100,00 %
30.10.2022 05:34 12,7 C 11,7 C 8,3 C 93 % 1017,9 hPa 0,0 l/m 0 min 0 min 0 W/m 0,0 km/h (0 Bft) 97,87 %
30.10.2022 05:36 12,7 C 11,7 C 8,9 C 93 % 1017,9 hPa 0,0 l/m 0 min 0 min 0 W/m 0,0 km/h (0 Bft) 97,83 %
30.10.2022 05:38 12,8 C 11,7 C 8,9 C 93 % 1017,8 hPa 0,0 l/m 0 min 0 min 0 W/m 0,0 km/h (0 Bft) 95,74 %
30.10.2022 05:40 12,8 C 11,7 C 8,9 C 93 % 1017,8 hPa 0,0 l/m 0 min 0 min 0 W/m 0,0 km/h (0 Bft) 95,74 %
30.10.2022 05:42 12,8 C 12,2 C 8,9 C 93 % 1017,8 hPa 0,0 l/m 0 min 0 min 0 W/m 3,2 km/h (1 Bft) 93,62 %
30.10.2022 05:44 12,8 C 12,2 C 8,9 C 93 % 1017,8 hPa 0,0 l/m 0 min 0 min 0 W/m 0,0 km/h (0 Bft) 95,74 %
30.10.2022 05:46 12,8 C 12,2 C 8,9 C 94 % 1017,9 hPa 0,0 l/m 0 min 0 min 0 W/m 0,0 km/h (0 Bft) 93,62 %
30.10.2022 05:48 12,8 C 12,2 C 8,9 C 94 % 1017,9 hPa 0,0 l/m 0 min 0 min 0 W/m 0,0 km/h (0 Bft) 95,74 %
30.10.2022 05:50 12,8 C 12,2 C 8,9 C 94 % 1017,8 hPa 0,0 l/m 0 min 0 min 0 W/m 0,0 km/h (0 Bft) 97,83 %
30.10.2022 05:52 12,9 C 12,2 C 8,9 C 94 % 1017,8 hPa 0,0 l/m 0 min 0 min 0 W/m 0,0 km/h (0 Bft) 95,74 %
30.10.2022 05:54 12,9 C 12,2 C 8,9 C 94 % 1017,8 hPa 0,0 l/m 0 min 0 min 0 W/m 0,0 km/h (0 Bft) 97,87 %
30.10.2022 05:56 12,9 C 12,2 C 8,9 C 94 % 1017,8 hPa 0,0 l/m 0 min 0 min 0 W/m 0,0 km/h (0 Bft) 97,87 %
30.10.2022 05:58 12,9 C 12,2 C 8,9 C 94 % 1017,7 hPa 0,0 l/m 0 min 0 min 0 W/m 0,0 km/h (0 Bft) 95,74 %
30.10.2022 06:00 12,9 C 12,2 C 8,9 C 94 % 1017,8 hPa 0,0 l/m 0 min 0 min 0 W/m 0,0 km/h (0 Bft) 100,00 %
30.10.2022 06:02 12,9 C 12,2 C 8,9 C 94 % 1017,7 hPa 0,0 l/m 0 min 0 min 0 W/m 0,0 km/h (0 Bft) 95,65 %
30.10.2022 06:04 12,8 C 12,2 C 8,9 C 94 % 1017,7 hPa 0,0 l/m 0 min 0 min 0 W/m 0,0 km/h (0 Bft) 97,87 %
30.10.2022 06:08 12,9 C 12,2 C 8,9 C 94 % 1017,7 hPa 0,0 l/m 0 min 0 min 0 W/m 0,0 km/h (0 Bft) 98,96 %
30.10.2022 06:10 12,8 C 12,2 C 8,9 C 94 % 1017,7 hPa 0,0 l/m 0 min 0 min 0 W/m 0,0 km/h (0 Bft) 95,74 %
30.10.2022 06:12 12,8 C 12,2 C 8,9 C 94 % 1017,7 hPa 0,0 l/m 0 min 0 min 0 W/m 0,0 km/h (0 Bft) 97,83 %
30.10.2022 06:14 12,8 C 12,2 C 8,9 C 94 % 1017,8 hPa 0,0 l/m 0 min 0 min 0 W/m 0,0 km/h (0 Bft) 93,62 %
30.10.2022 06:16 12,8 C 12,2 C 8,9 C 94 % 1017,7 hPa 0,0 l/m 0 min 0 min 0 W/m 0,0 km/h (0 Bft) 97,87 %
30.10.2022 06:18 12,8 C 12,2 C 8,9 C 94 % 1017,7 hPa 0,0 l/m 0 min 0 min 0 W/m 0,0 km/h (0 Bft) 95,74 %
30.10.2022 06:20 12,8 C 11,7 C 8,9 C 94 % 1017,8 hPa 0,0 l/m 0 min 0 min 0 W/m 0,0 km/h (0 Bft) 97,87 %
30.10.2022 06:22 12,8 C 11,7 C 8,9 C 95 % 1017,7 hPa 0,0 l/m 0 min 0 min 0 W/m 0,0 km/h (0 Bft) 95,74 %
30.10.2022 06:24 12,8 C 11,7 C 8,9 C 95 % 1017,7 hPa 0,0 l/m 0 min 0 min 0 W/m 0,0 km/h (0 Bft) 97,83 %
30.10.2022 06:26 12,8 C 11,7 C 8,9 C 95 % 1017,7 hPa 0,0 l/m 0 min 0 min 0 W/m 0,0 km/h (0 Bft) 97,87 %
30.10.2022 06:28 12,8 C 11,7 C 8,9 C 95 % 1017,7 hPa 0,0 l/m 0 min 0 min 0 W/m 0,0 km/h (0 Bft) 97,87 %
30.10.2022 06:30 12,7 C 11,7 C 8,9 C 94 % 1017,6 hPa 0,0 l/m 0 min 0 min 0 W/m 0,0 km/h (0 Bft) 97,87 %
30.10.2022 06:32 12,7 C 11,7 C 8,3 C 94 % 1017,6 hPa 0,0 l/m 0 min 0 min 0 W/m 0,0 km/h (0 Bft) 95,74 %
30.10.2022 06:34 12,7 C 11,7 C 8,3 C 94 % 1017,6 hPa 0,0 l/m 0 min 0 min 0 W/m 0,0 km/h (0 Bft) 97,87 %
30.10.2022 06:36 12,7 C 11,7 C 8,3 C 95 % 1017,6 hPa 0,0 l/m 0 min 0 min 0 W/m 0,0 km/h (0 Bft) 97,83 %
30.10.2022 06:38 12,7 C 11,7 C 8,3 C 95 % 1017,6 hPa 0,0 l/m 0 min 0 min 0 W/m 0,0 km/h (0 Bft) 97,87 %
30.10.2022 06:40 12,6 C 11,7 C 8,9 C 95 % 1017,6 hPa 0,0 l/m 0 min 0 min 0 W/m 0,0 km/h (0 Bft) 95,92 %
30.10.2022 06:42 12,6 C 11,7 C 8,9 C 95 % 1017,6 hPa 0,0 l/m 0 min 0 min 0 W/m 0,0 km/h (0 Bft) 95,74 %
30.10.2022 06:44 12,6 C 11,7 C 8,9 C 94 % 1017,7 hPa 0,0 l/m 0 min 0 min 0 W/m 0,0 km/h (0 Bft) 97,87 %
30.10.2022 06:46 12,6 C 11,7 C 8,9 C 94 % 1017,7 hPa 0,0 l/m 0 min 0 min 0 W/m 0,0 km/h (0 Bft) 97,83 %
30.10.2022 06:48 12,6 C 11,7 C 8,9 C 94 % 1017,7 hPa 0,0 l/m 0 min 0 min 0 W/m 0,0 km/h (0 Bft) 95,74 %
30.10.2022 06:50 12,6 C 11,7 C 8,9 C 94 % 1017,7 hPa 0,0 l/m 0 min 0 min 0 W/m 0,0 km/h (0 Bft) 93,62 %
30.10.2022 06:52 12,6 C 11,7 C 8,9 C 95 % 1017,7 hPa 0,0 l/m 0 min 0 min 0 W/m 0,0 km/h (0 Bft) 87,23 %
30.10.2022 06:54 12,6 C 11,7 C 8,9 C 95 % 1017,7 hPa 0,0 l/m 0 min 0 min 0 W/m 0,0 km/h (0 Bft) 97,87 %
30.10.2022 06:56 12,6 C 11,7 C 8,9 C 95 % 1017,8 hPa 0,0 l/m 0 min 0 min 0 W/m 0,0 km/h (0 Bft) 97,87 %
30.10.2022 06:58 12,6 C 11,7 C 8,9 C 95 % 1017,7 hPa 0,0 l/m 0 min 0 min 0 W/m 0,0 km/h (0 Bft) 97,83 %
30.10.2022 07:00 12,6 C 11,7 C 8,9 C 95 % 1017,8 hPa 0,0 l/m 0 min 0 min 0 W/m 0,0 km/h (0 Bft) 93,62 %
30.10.2022 07:02 12,6 C 11,7 C 8,3 C 95 % 1017,7 hPa 0,0 l/m 0 min 0 min 0 W/m 0,0 km/h (0 Bft) 100,00 %
30.10.2022 07:04 12,5 C 11,7 C 8,3 C 95 % 1017,7 hPa 0,0 l/m 0 min 0 min 0 W/m 0,0 km/h (0 Bft) 97,87 %
30.10.2022 07:06 12,6 C 11,7 C 8,3 C 95 % 1017,7 hPa 0,0 l/m 0 min 0 min 0 W/m 0,0 km/h (0 Bft) 100,00 %
30.10.2022 07:08 12,5 C 11,7 C 8,3 C 95 % 1017,7 hPa 0,0 l/m 0 min 0 min 0 W/m 0,0 km/h (0 Bft) 97,87 %
30.10.2022 07:10 12,5 C 11,7 C 8,9 C 95 % 1017,7 hPa 0,0 l/m 0 min 0 min 0 W/m 0,0 km/h (0 Bft) 97,83 %
30.10.2022 07:12 12,5 C 11,7 C 8,9 C 95 % 1017,7 hPa 0,0 l/m 0 min 0 min 0 W/m 0,0 km/h (0 Bft) 97,87 %
30.10.2022 07:14 12,5 C 11,7 C 8,9 C 95 % 1017,7 hPa 0,0 l/m 0 min 0 min 0 W/m 0,0 km/h (0 Bft) 70,21 %
30.10.2022 07:16 12,5 C 11,7 C 8,9 C 95 % 1017,7 hPa 0,0 l/m 0 min 0 min 0 W/m 0,0 km/h (0 Bft) 81,58 %
30.10.2022 07:18 12,4 C 11,7 C 8,9 C 95 % 1017,7 hPa 0,0 l/m 0 min 0 min 0 W/m 0,0 km/h (0 Bft) 93,62 %
30.10.2022 07:20 12,5 C 11,7 C 8,9 C 95 % 1017,7 hPa 0,0 l/m 0 min 0 min 0 W/m 0,0 km/h (0 Bft) 93,62 %
30.10.2022 07:22 12,5 C 11,7 C 8,9 C 95 % 1017,7 hPa 0,0 l/m 0 min 0 min 0 W/m 0,0 km/h (0 Bft) 95,65 %
30.10.2022 07:24 12,5 C 11,7 C 8,9 C 95 % 1017,7 hPa 0,0 l/m 0 min 0 min 0 W/m 0,0 km/h (0 Bft) 91,49 %
30.10.2022 07:26 12,5 C 11,7 C 8,9 C 95 % 1017,7 hPa 0,0 l/m 0 min 0 min 0 W/m 0,0 km/h (0 Bft) 95,74 %
30.10.2022 07:28 12,5 C 11,7 C 8,9 C 95 % 1017,6 hPa 0,0 l/m 0 min 0 min 3 W/m 0,0 km/h (0 Bft) 95,74 %
30.10.2022 07:30 12,5 C 11,7 C 8,9 C 95 % 1017,6 hPa 0,0 l/m 0 min 0 min 6 W/m 0,0 km/h (0 Bft) 93,62 %
30.10.2022 07:32 12,5 C 11,7 C 8,9 C 95 % 1017,7 hPa 0,0 l/m 0 min 0 min 7 W/m 0,0 km/h (0 Bft) 93,62 %
30.10.2022 07:34 12,5 C 11,7 C 8,9 C 95 % 1017,7 hPa 0,0 l/m 0 min 0 min 7 W/m 0,0 km/h (0 Bft) 97,14 %
30.10.2022 07:36 12,5 C 11,7 C 8,9 C 95 % 1017,7 hPa 0,0 l/m 0 min 0 min 7 W/m 0,0 km/h (0 Bft) 91,38 %
30.10.2022 07:38 12,4 C 11,7 C 8,9 C 95 % 1017,7 hPa 0,0 l/m 0 min 0 min 8 W/m 0,0 km/h (0 Bft) 95,74 %
30.10.2022 07:40 12,4 C 11,7 C 8,9 C 95 % 1017,7 hPa 0,0 l/m 0 min 0 min 9 W/m 0,0 km/h (0 Bft) 95,74 %
30.10.2022 07:42 12,5 C 11,7 C 8,9 C 95 % 1017,7 hPa 0,0 l/m 0 min 0 min 9 W/m 0,0 km/h (0 Bft) 95,74 %
30.10.2022 07:44 12,5 C 11,7 C 8,9 C 95 % 1017,8 hPa 0,0 l/m 0 min 0 min 11 W/m 0,0 km/h (0 Bft) 95,74 %
30.10.2022 07:46 12,5 C 11,7 C 8,9 C 95 % 1017,7 hPa 0,0 l/m 0 min 0 min 12 W/m 0,0 km/h (0 Bft) 95,65 %
30.10.2022 07:48 12,5 C 11,7 C 8,9 C 95 % 1017,7 hPa 0,0 l/m 0 min 0 min 13 W/m 0,0 km/h (0 Bft) 94,44 %
30.10.2022 07:50 12,5 C 11,7 C 8,9 C 95 % 1017,7 hPa 0,0 l/m 0 min 0 min 15 W/m 0,0 km/h (0 Bft) 96,55 %
30.10.2022 07:52 12,5 C 11,7 C 8,9 C 95 % 1017,8 hPa 0,0 l/m 0 min 0 min 16 W/m 0,0 km/h (0 Bft) 97,87 %
30.10.2022 07:54 12,5 C 11,7 C 8,9 C 95 % 1017,8 hPa 0,0 l/m 0 min 0 min 18 W/m 0,0 km/h (0 Bft) 97,14 %
30.10.2022 07:56 12,5 C 11,7 C 8,9 C 95 % 1017,8 hPa 0,0 l/m 0 min 0 min 18 W/m 0,0 km/h (0 Bft) 98,31 %
30.10.2022 07:58 12,5 C 11,7 C 8,9 C 95 % 1017,8 hPa 0,0 l/m 0 min 0 min 19 W/m 0,0 km/h (0 Bft) 100,00 %
30.10.2022 08:00 12,5 C 11,7 C 8,9 C 95 % 1017,8 hPa 0,0 l/m 0 min 0 min 19 W/m 0,0 km/h (0 Bft) 100,00 %
30.10.2022 08:02 12,5 C 11,7 C 8,9 C 95 % 1017,7 hPa 0,0 l/m 0 min 0 min 20 W/m 0,0 km/h (0 Bft) 100,00 %
30.10.2022 08:04 12,5 C 11,7 C 8,9 C 95 % 1017,7 hPa 0,0 l/m 0 min 0 min 21 W/m 0,0 km/h (0 Bft) 100,00 %
30.10.2022 08:06 12,5 C 12,2 C 8,9 C 95 % 1017,7 hPa 0,0 l/m 0 min 0 min 21 W/m 0,0 km/h (0 Bft) 95,74 %
30.10.2022 08:08 12,5 C 12,2 C 8,9 C 95 % 1017,8 hPa 0,0 l/m 0 min 0 min 21 W/m 0,0 km/h (0 Bft) 100,00 %
30.10.2022 08:10 12,5 C 12,2 C 8,9 C 95 % 1017,8 hPa 0,0 l/m 0 min 0 min 23 W/m 0,0 km/h (0 Bft) 98,28 %
30.10.2022 08:12 12,5 C 12,2 C 8,9 C 95 % 1017,9 hPa 0,0 l/m 0 min 0 min 25 W/m 0,0 km/h (0 Bft) 100,00 %
30.10.2022 08:14 12,5 C 12,2 C 8,9 C 95 % 1017,9 hPa 0,0 l/m 0 min 0 min 26 W/m 0,0 km/h (0 Bft) 100,00 %
30.10.2022 08:16 12,5 C 12,2 C 8,9 C 95 % 1017,9 hPa 0,0 l/m 0 min 0 min 26 W/m 0,0 km/h (0 Bft) 97,14 %
30.10.2022 08:18 12,5 C 12,2 C 8,9 C 95 % 1017,9 hPa 0,0 l/m 0 min 0 min 26 W/m 0,0 km/h (0 Bft) 100,00 %
30.10.2022 08:20 12,5 C 12,2 C 8,9 C 95 % 1017,9 hPa 0,0 l/m 0 min 0 min 26 W/m 0,0 km/h (0 Bft) 100,00 %
30.10.2022 08:22 12,5 C 12,2 C 8,9 C 95 % 1017,9 hPa 0,0 l/m 0 min 0 min 26 W/m 0,0 km/h (0 Bft) 100,00 %
30.10.2022 08:24 12,5 C 12,2 C 8,9 C 95 % 1017,9 hPa 0,0 l/m 0 min 0 min 28 W/m 0,0 km/h (0 Bft) 97,22 %
30.10.2022 08:26 12,5 C 12,2 C 8,9 C 95 % 1017,9 hPa 0,0 l/m 0 min 0 min 30 W/m 0,0 km/h (0 Bft) 100,00 %
30.10.2022 08:28 12,5 C 12,2 C 8,9 C 95 % 1017,9 hPa 0,0 l/m 0 min 0 min 33 W/m 0,0 km/h (0 Bft) 97,87 %
30.10.2022 08:30 12,5 C 12,2 C 8,9 C 95 % 1017,9 hPa 0,0 l/m 0 min 0 min 35 W/m 0,0 km/h (0 Bft) 97,87 %
30.10.2022 08:32 12,6 C 12,2 C 8,9 C 95 % 1017,9 hPa 0,0 l/m 0 min 0 min 35 W/m 0,0 km/h (0 Bft) 100,00 %
30.10.2022 08:34 12,6 C 12,2 C 8,9 C 95 % 1017,9 hPa 0,0 l/m 0 min 0 min 38 W/m 0,0 km/h (0 Bft) 100,00 %
30.10.2022 08:36 12,6 C 12,2 C 8,9 C 95 % 1017,9 hPa 0,0 l/m 0 min 0 min 39 W/m 0,0 km/h (0 Bft) 100,00 %
30.10.2022 08:38 12,6 C 12,8 C 8,9 C 95 % 1017,9 hPa 0,0 l/m 0 min 0 min 39 W/m 0,0 km/h (0 Bft) 100,00 %
30.10.2022 08:40 12,6 C 12,8 C 9,4 C 95 % 1017,9 hPa 0,0 l/m 0 min 0 min 39 W/m 0,0 km/h (0 Bft) 100,00 %
30.10.2022 08:42 12,6 C 12,8 C 9,4 C 95 % 1017,9 hPa 0,0 l/m 0 min 0 min 39 W/m 0,0 km/h (0 Bft) 100,00 %
30.10.2022 08:44 12,7 C 12,8 C 9,4 C 95 % 1017,8 hPa 0,0 l/m 0 min 0 min 41 W/m 0,0 km/h (0 Bft) 100,00 %
30.10.2022 08:46 12,7 C 12,8 C 9,4 C 95 % 1017,8 hPa 0,0 l/m 0 min 0 min 44 W/m 0,0 km/h (0 Bft) 94,29 %
30.10.2022 08:48 12,7 C 12,8 C 9,4 C 95 % 1017,8 hPa 0,0 l/m 0 min 0 min 46 W/m 0,0 km/h (0 Bft) 95,74 %
30.10.2022 08:50 12,8 C 12,8 C 9,4 C 95 % 1017,8 hPa 0,0 l/m 0 min 0 min 49 W/m 0,0 km/h (0 Bft) 100,00 %
30.10.2022 08:52 12,8 C 12,8 C 9,4 C 96 % 1017,8 hPa 0,0 l/m 0 min 0 min 49 W/m 0,0 km/h (0 Bft) 98,31 %
30.10.2022 08:54 12,8 C 13,3 C 9,4 C 96 % 1017,8 hPa 0,0 l/m 0 min 0 min 53 W/m 0,0 km/h (0 Bft) 100,00 %
30.10.2022 08:56 12,9 C 13,3 C 10,0 C 96 % 1017,8 hPa 0,0 l/m 0 min 0 min 57 W/m 0,0 km/h (0 Bft) 100,00 %
30.10.2022 08:58 13,0 C 13,3 C 10,0 C 96 % 1017,8 hPa 0,0 l/m 0 min 0 min 49 W/m 0,0 km/h (0 Bft) 88,57 %
30.10.2022 09:00 13,1 C 13,3 C 10,0 C 96 % 1017,8 hPa 0,0 l/m 0 min 0 min 46 W/m 0,0 km/h (0 Bft) 84,48 %
30.10.2022 09:02 13,1 C 13,3 C 10,0 C 96 % 1017,8 hPa 0,0 l/m 0 min 0 min 46 W/m 0,0 km/h (0 Bft) 25,53 %
30.10.2022 09:04 13,2 C 13,9 C 10,0 C 96 % 1017,8 hPa 0,0 l/m 0 min 0 min 48 W/m 0,0 km/h (0 Bft) 42,86 %
30.10.2022 09:06 13,3 C 13,9 C 10,0 C 96 % 1017,8 hPa 0,0 l/m 0 min 0 min 49 W/m 0,0 km/h (0 Bft) 47,46 %
30.10.2022 09:08 13,3 C 13,9 C 10,0 C 96 % 1017,8 hPa 0,0 l/m 0 min 0 min 53 W/m 0,0 km/h (0 Bft) 38,30 %
30.10.2022 09:10 13,4 C 13,9 C 10,6 C 96 % 1017,8 hPa 0,0 l/m 0 min 0 min 54 W/m 0,0 km/h (0 Bft) 71,43 %
30.10.2022 09:12 13,5 C 13,9 C 10,6 C 95 % 1017,8 hPa 0,0 l/m 0 min 0 min 58 W/m 0,0 km/h (0 Bft) 50,00 %
30.10.2022 09:14 13,6 C 13,9 C 10,6 C 96 % 1017,8 hPa 0,0 l/m 0 min 0 min 88 W/m 0,0 km/h (0 Bft) 34,04 %
30.10.2022 09:16 13,7 C 14,4 C 10,6 C 96 % 1017,7 hPa 0,0 l/m 0 min 0 min 88 W/m 0,0 km/h (0 Bft) 59,32 %
30.10.2022 09:18 13,8 C 14,4 C 10,6 C 95 % 1017,7 hPa 0,0 l/m 0 min 0 min 83 W/m 0,0 km/h (0 Bft) 68,57 %
30.10.2022 09:20 13,8 C 14,4 C 10,6 C 95 % 1017,7 hPa 0,0 l/m 0 min 0 min 88 W/m 3,2 km/h (1 Bft) 80,85 %
30.10.2022 09:22 13,9 C 14,4 C 10,6 C 95 % 1017,7 hPa 0,0 l/m 0 min 0 min 87 W/m 6,4 km/h (2 Bft) 95,74 %
30.10.2022 09:24 14,0 C 14,4 C 10,6 C 95 % 1017,7 hPa 0,0 l/m 0 min 0 min 71 W/m 6,4 km/h (2 Bft) 95,74 %
30.10.2022 09:26 14,1 C 14,4 C 10,6 C 95 % 1017,7 hPa 0,0 l/m 0 min 0 min 63 W/m 6,4 km/h (2 Bft) 93,48 %
30.10.2022 09:28 14,2 C 14,4 C 11,1 C 95 % 1017,7 hPa 0,0 l/m 0 min 0 min 64 W/m 6,4 km/h (2 Bft) 93,62 %
30.10.2022 09:30 14,3 C 15,0 C 11,1 C 95 % 1017,7 hPa 0,0 l/m 0 min 0 min 67 W/m 3,2 km/h (1 Bft) 95,74 %
30.10.2022 09:32 14,3 C 15,0 C 11,1 C 95 % 1017,7 hPa 0,0 l/m 0 min 0 min 67 W/m 6,4 km/h (2 Bft) 95,74 %
30.10.2022 09:34 14,3 C 15,0 C 11,1 C 95 % 1017,7 hPa 0,0 l/m 0 min 0 min 69 W/m 6,4 km/h (2 Bft) 93,62 %
30.10.2022 09:36 14,3 C 15,6 C 11,1 C 95 % 1017,7 hPa 0,0 l/m 0 min 0 min 72 W/m 6,4 km/h (2 Bft) 96,30 %
30.10.2022 09:38 14,4 C 15,6 C 11,1 C 94 % 1017,7 hPa 0,0 l/m 0 min 0 min 78 W/m 6,4 km/h (2 Bft) 89,36 %
30.10.2022 09:40 14,5 C 16,1 C 11,1 C 94 % 1017,7 hPa 0,0 l/m 0 min 0 min 129 W/m 3,2 km/h (1 Bft) 93,62 %
30.10.2022 09:42 14,6 C 16,1 C 11,1 C 94 % 1017,8 hPa 0,0 l/m 0 min 0 min 103 W/m 6,4 km/h (2 Bft) 93,62 %
30.10.2022 09:44 14,7 C 16,1 C 11,1 C 93 % 1017,7 hPa 0,0 l/m 0 min 0 min 106 W/m 12,9 km/h (3 Bft) 97,87 %
30.10.2022 09:46 14,8 C 16,1 C 11,7 C 93 % 1017,7 hPa 0,0 l/m 2 min 0 min 154 W/m 16,1 km/h (3 Bft) 93,48 %
30.10.2022 09:48 14,9 C 16,1 C 11,7 C 93 % 1017,7 hPa 0,0 l/m 2 min 0 min 184 W/m 12,9 km/h (3 Bft) 93,62 %
30.10.2022 09:50 15,0 C 16,1 C 11,7 C 93 % 1017,7 hPa 0,0 l/m 2 min 0 min 193 W/m 3,2 km/h (1 Bft) 97,87 %
30.10.2022 09:52 15,1 C 16,1 C 11,7 C 93 % 1017,6 hPa 0,0 l/m 2 min 0 min 199 W/m 6,4 km/h (2 Bft) 93,62 %
30.10.2022 09:54 15,2 C 16,7 C 11,7 C 92 % 1017,6 hPa 0,0 l/m 2 min 0 min 187 W/m 12,9 km/h (3 Bft) 95,74 %
30.10.2022 09:56 15,3 C 16,7 C 11,7 C 92 % 1017,7 hPa 0,0 l/m 2 min 0 min 181 W/m 12,9 km/h (3 Bft) 93,62 %
30.10.2022 09:58 15,4 C 16,7 C 11,7 C 91 % 1017,6 hPa 0,0 l/m 0 min 0 min 143 W/m 12,9 km/h (3 Bft) 97,83 %
30.10.2022 10:00 15,6 C 16,7 C 11,7 C 91 % 1017,6 hPa 0,0 l/m 0 min 0 min 142 W/m 12,9 km/h (3 Bft) 95,74 %
30.10.2022 10:02 15,6 C 17,2 C 11,7 C 90 % 1017,6 hPa 0,0 l/m 0 min 0 min 138 W/m 6,4 km/h (2 Bft) 97,87 %
30.10.2022 10:04 15,7 C 17,8 C 12,2 C 90 % 1017,5 hPa 0,0 l/m 0 min 0 min 141 W/m 6,4 km/h (2 Bft) 97,87 %
30.10.2022 10:06 15,9 C 17,8 C 12,2 C 90 % 1017,5 hPa 0,0 l/m 0 min 0 min 157 W/m 16,1 km/h (3 Bft) 97,87 %
30.10.2022 10:08 16,0 C 18,3 C 12,2 C 89 % 1017,5 hPa 0,0 l/m 2 min 0 min 210 W/m 12,9 km/h (3 Bft) 95,74 %
30.10.2022 10:10 16,1 C 18,9 C 12,2 C 88 % 1017,4 hPa 0,0 l/m 2 min 0 min 236 W/m 6,4 km/h (2 Bft) 97,83 %
30.10.2022 10:12 16,2 C 20,0 C 12,2 C 88 % 1017,4 hPa 0,0 l/m 2 min 0 min 250 W/m 6,4 km/h (2 Bft) 97,87 %
30.10.2022 10:14 16,3 C 21,1 C 12,2 C 88 % 1017,4 hPa 0,0 l/m 2 min 0 min 264 W/m 3,2 km/h (1 Bft) 97,87 %
30.10.2022 10:16 16,3 C 21,7 C 12,2 C 88 % 1017,4 hPa 0,0 l/m 2 min 0 min 229 W/m 6,4 km/h (2 Bft) 95,74 %
30.10.2022 10:18 16,4 C 22,2 C 12,2 C 88 % 1017,3 hPa 0,0 l/m 2 min 0 min 279 W/m 6,4 km/h (2 Bft) 95,74 %
30.10.2022 10:20 16,6 C 23,3 C 12,2 C 88 % 1017,3 hPa 0,0 l/m 2 min 0 min 310 W/m 6,4 km/h (2 Bft) 95,74 %
30.10.2022 10:22 16,7 C 23,9 C 12,2 C 87 % 1017,2 hPa 0,0 l/m 2 min 0 min 324 W/m 6,4 km/h (2 Bft) 97,83 %
30.10.2022 10:24 16,8 C 23,9 C 12,8 C 87 % 1017,3 hPa 0,0 l/m 2 min 0 min 330 W/m 12,9 km/h (3 Bft) 97,87 %
30.10.2022 10:26 16,9 C 23,9 C 12,8 C 86 % 1017,3 hPa 0,0 l/m 2 min 0 min 329 W/m 12,9 km/h (3 Bft) 98,00 %
30.10.2022 10:28 17,1 C 23,9 C 12,8 C 85 % 1017,3 hPa 0,0 l/m 2 min 0 min 315 W/m 6,4 km/h (2 Bft) 97,87 %
30.10.2022 10:30 17,2 C 24,4 C 12,8 C 85 % 1017,4 hPa 0,0 l/m 2 min 0 min 262 W/m 12,9 km/h (3 Bft) 97,87 %
30.10.2022 10:32 17,3 C 23,9 C 12,8 C 85 % 1017,4 hPa 0,0 l/m 2 min 0 min 229 W/m 6,4 km/h (2 Bft) 97,83 %
30.10.2022 10:34 17,4 C 23,9 C 12,8 C 84 % 1017,5 hPa 0,0 l/m 0 min 0 min 145 W/m 12,9 km/h (3 Bft) 97,87 %
30.10.2022 10:36 17,4 C 23,3 C 13,3 C 83 % 1017,5 hPa 0,0 l/m 2 min 0 min 206 W/m 12,9 km/h (3 Bft) 97,87 %
30.10.2022 10:38 17,6 C 22,8 C 13,3 C 83 % 1017,5 hPa 0,0 l/m 2 min 0 min 215 W/m 12,9 km/h (3 Bft) 95,74 %
30.10.2022 10:40 17,6 C 21,1 C 13,3 C 82 % 1017,6 hPa 0,0 l/m 2 min 0 min 189 W/m 12,9 km/h (3 Bft) 97,87 %
30.10.2022 10:42 17,7 C 20,6 C 13,3 C 82 % 1017,6 hPa 0,0 l/m 0 min 0 min 156 W/m 12,9 km/h (3 Bft) 97,87 %
30.10.2022 10:44 17,7 C 20,0 C 13,3 C 81 % 1017,5 hPa 0,0 l/m 0 min 0 min 150 W/m 16,1 km/h (3 Bft) 97,83 %
30.10.2022 10:46 17,8 C 19,4 C 13,3 C 81 % 1017,5 hPa 0,0 l/m 2 min 0 min 251 W/m 6,4 km/h (2 Bft) 97,87 %
30.10.2022 10:48 17,8 C 19,4 C 13,3 C 81 % 1017,5 hPa 0,0 l/m 2 min 0 min 298 W/m 16,1 km/h (3 Bft) 97,87 %
30.10.2022 10:50 17,9 C 19,4 C 13,3 C 81 % 1017,4 hPa 0,0 l/m 2 min 0 min 278 W/m 16,1 km/h (3 Bft) 95,74 %
30.10.2022 10:52 18,0 C 19,4 C 13,3 C 81 % 1017,5 hPa 0,0 l/m 2 min 0 min 196 W/m 12,9 km/h (3 Bft) 97,87 %
30.10.2022 10:54 18,1 C 18,9 C 13,3 C 81 % 1017,4 hPa 0,0 l/m 0 min 0 min 179 W/m 6,4 km/h (2 Bft) 97,87 %
30.10.2022 10:56 18,1 C 18,9 C 13,3 C 81 % 1017,4 hPa 0,0 l/m 0 min 0 min 168 W/m 16,1 km/h (3 Bft) 97,83 %
30.10.2022 10:58 18,2 C 18,3 C 13,3 C 81 % 1017,4 hPa 0,0 l/m 0 min 0 min 136 W/m 12,9 km/h (3 Bft) 97,87 %
30.10.2022 11:00 18,2 C 18,3 C 13,3 C 81 % 1017,4 hPa 0,0 l/m 0 min 0 min 170 W/m 12,9 km/h (3 Bft) 97,87 %
30.10.2022 11:02 18,2 C 18,3 C 13,3 C 81 % 1017,4 hPa 0,0 l/m 0 min 0 min 157 W/m 12,9 km/h (3 Bft) 95,74 %
30.10.2022 11:04 18,2 C 18,3 C 13,3 C 81 % 1017,4 hPa 0,0 l/m 0 min 0 min 117 W/m 9,7 km/h (2 Bft) 95,74 %
30.10.2022 11:06 18,2 C 18,3 C 13,3 C 81 % 1017,3 hPa 0,0 l/m 0 min 0 min 106 W/m 12,9 km/h (3 Bft) 97,87 %
30.10.2022 11:08 18,2 C 18,3 C 13,3 C 81 % 1017,3 hPa 0,0 l/m 0 min 0 min 99 W/m 9,7 km/h (2 Bft) 97,83 %
30.10.2022 11:10 18,3 C 18,3 C 13,3 C 81 % 1017,3 hPa 0,0 l/m 0 min 0 min 97 W/m 12,9 km/h (3 Bft) 97,87 %
30.10.2022 11:12 18,3 C 18,3 C 13,3 C 81 % 1017,3 hPa 0,0 l/m 0 min 0 min 97 W/m 12,9 km/h (3 Bft) 95,74 %
30.10.2022 11:14 18,3 C 17,8 C 13,3 C 80 % 1017,3 hPa 0,0 l/m 0 min 0 min 96 W/m 16,1 km/h (3 Bft) 95,74 %
30.10.2022 11:16 18,3 C 18,3 C 13,3 C 80 % 1017,3 hPa 0,0 l/m 0 min 0 min 95 W/m 6,4 km/h (2 Bft) 97,87 %
30.10.2022 11:18 18,3 C 18,3 C 13,9 C 80 % 1017,3 hPa 0,0 l/m 0 min 0 min 94 W/m 12,9 km/h (3 Bft) 97,87 %
30.10.2022 11:20 18,3 C 18,3 C 13,9 C 80 % 1017,3 hPa 0,0 l/m 0 min 0 min 93 W/m 12,9 km/h (3 Bft) 93,48 %
30.10.2022 11:22 18,3 C 18,3 C 13,9 C 80 % 1017,3 hPa 0,0 l/m 0 min 0 min 93 W/m 6,4 km/h (2 Bft) 97,87 %
30.10.2022 11:24 18,3 C 18,3 C 13,9 C 81 % 1017,3 hPa 0,0 l/m 0 min 0 min 95 W/m 12,9 km/h (3 Bft) 97,87 %
30.10.2022 11:26 18,3 C 18,3 C 13,9 C 81 % 1017,3 hPa 0,0 l/m 0 min 0 min 98 W/m 6,4 km/h (2 Bft) 97,87 %
30.10.2022 11:28 18,4 C 18,3 C 13,9 C 81 % 1017,3 hPa 0,0 l/m 0 min 0 min 101 W/m 6,4 km/h (2 Bft) 95,74 %
30.10.2022 11:30 18,4 C 18,3 C 13,9 C 81 % 1017,3 hPa 0,0 l/m 0 min 0 min 106 W/m 6,4 km/h (2 Bft) 97,87 %
30.10.2022 11:32 18,4 C 18,3 C 13,9 C 81 % 1017,3 hPa 0,0 l/m 0 min 0 min 110 W/m 12,9 km/h (3 Bft) 97,83 %
30.10.2022 11:34 18,5 C 18,3 C 13,9 C 81 % 1017,3 hPa 0,0 l/m 0 min 0 min 111 W/m 6,4 km/h (2 Bft) 97,87 %
30.10.2022 11:36 18,5 C 18,9 C 13,9 C 81 % 1017,2 hPa 0,0 l/m 0 min 0 min 111 W/m 12,9 km/h (3 Bft) 97,87 %
30.10.2022 11:38 18,6 C 18,3 C 13,9 C 80 % 1017,2 hPa 0,0 l/m 0 min 0 min 108 W/m 12,9 km/h (3 Bft) 95,74 %
30.10.2022 11:40 18,6 C 18,3 C 13,9 C 80 % 1017,2 hPa 0,0 l/m 0 min 0 min 105 W/m 16,1 km/h (3 Bft) 97,87 %
30.10.2022 11:42 18,6 C 18,3 C 13,9 C 80 % 1017,2 hPa 0,0 l/m 0 min 0 min 104 W/m 19,3 km/h (3 Bft) 93,62 %
30.10.2022 11:44 18,6 C 18,3 C 13,9 C 79 % 1017,2 hPa 0,0 l/m 0 min 0 min 104 W/m 12,9 km/h (3 Bft) 95,74 %
30.10.2022 11:46 18,6 C 18,3 C 13,9 C 79 % 1017,2 hPa 0,0 l/m 0 min 0 min 105 W/m 12,9 km/h (3 Bft) 95,65 %
30.10.2022 11:48 18,7 C 18,3 C 13,9 C 79 % 1017,2 hPa 0,0 l/m 0 min 0 min 107 W/m 12,9 km/h (3 Bft) 97,87 %
30.10.2022 11:50 18,7 C 18,9 C 14,4 C 79 % 1017,2 hPa 0,0 l/m 0 min 0 min 109 W/m 12,9 km/h (3 Bft) 97,87 %
30.10.2022 11:52 18,7 C 18,9 C 14,4 C 79 % 1017,2 hPa 0,0 l/m 0 min 0 min 108 W/m 12,9 km/h (3 Bft) 97,87 %
30.10.2022 11:54 18,8 C 18,9 C 14,4 C 78 % 1017,2 hPa 0,0 l/m 0 min 0 min 107 W/m 12,9 km/h (3 Bft) 97,87 %
30.10.2022 11:56 18,8 C 18,9 C 14,4 C 78 % 1017,2 hPa 0,0 l/m 0 min 0 min 107 W/m 16,1 km/h (3 Bft) 97,87 %
30.10.2022 11:58 18,9 C 18,9 C 14,4 C 78 % 1017,2 hPa 0,0 l/m 0 min 0 min 107 W/m 12,9 km/h (3 Bft) 95,65 %
30.10.2022 12:00 18,9 C 18,9 C 14,4 C 78 % 1017,3 hPa 0,0 l/m 0 min 0 min 105 W/m 12,9 km/h (3 Bft) 97,87 %
30.10.2022 12:02 18,9 C 18,9 C 14,4 C 78 % 1017,3 hPa 0,0 l/m 0 min 0 min 104 W/m 16,1 km/h (3 Bft) 95,74 %
30.10.2022 12:04 19,0 C 18,9 C 14,4 C 77 % 1017,2 hPa 0,0 l/m 0 min 0 min 104 W/m 12,9 km/h (3 Bft) 97,87 %
30.10.2022 12:08 19,1 C 18,9 C 14,4 C 77 % 1017,2 hPa 0,0 l/m 0 min 0 min 106 W/m 12,9 km/h (3 Bft) 97,62 %
30.10.2022 12:10 19,2 C 18,9 C 14,4 C 77 % 1017,3 hPa 0,0 l/m 0 min 0 min 108 W/m 16,1 km/h (3 Bft) 97,87 %
30.10.2022 12:12 19,2 C 18,9 C 14,4 C 77 % 1017,2 hPa 0,0 l/m 0 min 0 min 106 W/m 19,3 km/h (3 Bft) 97,83 %
30.10.2022 12:14 19,3 C 19,4 C 15,0 C 77 % 1017,2 hPa 0,0 l/m 0 min 0 min 105 W/m 12,9 km/h (3 Bft) 97,87 %
30.10.2022 12:16 19,3 C 19,4 C 15,0 C 77 % 1017,2 hPa 0,0 l/m 0 min 0 min 109 W/m 9,7 km/h (2 Bft) 97,87 %
30.10.2022 12:18 19,4 C 19,4 C 15,0 C 76 % 1017,1 hPa 0,0 l/m 0 min 0 min 112 W/m 9,7 km/h (2 Bft) 97,87 %
30.10.2022 12:20 19,4 C 19,4 C 15,0 C 76 % 1017,1 hPa 0,0 l/m 0 min 0 min 113 W/m 16,1 km/h (3 Bft) 97,87 %
30.10.2022 12:22 19,5 C 19,4 C 15,0 C 76 % 1017,1 hPa 0,0 l/m 0 min 0 min 111 W/m 19,3 km/h (3 Bft) 95,74 %
30.10.2022 12:24 19,5 C 19,4 C 15,0 C 76 % 1017,1 hPa 0,0 l/m 0 min 0 min 110 W/m 16,1 km/h (3 Bft) 97,83 %
30.10.2022 12:26 19,6 C 19,4 C 15,0 C 76 % 1017,1 hPa 0,0 l/m 0 min 0 min 113 W/m 16,1 km/h (3 Bft) 100,00 %
30.10.2022 12:28 19,6 C 19,4 C 15,0 C 76 % 1017,0 hPa 0,0 l/m 0 min 0 min 115 W/m 12,9 km/h (3 Bft) 100,00 %
30.10.2022 12:30 19,6 C 19,4 C 15,0 C 76 % 1017,0 hPa 0,0 l/m 0 min 0 min 115 W/m 12,9 km/h (3 Bft) 100,00 %
30.10.2022 12:32 19,7 C 19,4 C 15,0 C 76 % 1017,0 hPa 0,0 l/m 0 min 0 min 116 W/m 12,9 km/h (3 Bft) 95,74 %
30.10.2022 12:34 19,7 C 19,4 C 15,0 C 76 % 1017,0 hPa 0,0 l/m 0 min 0 min 119 W/m 6,4 km/h (2 Bft) 100,00 %
30.10.2022 12:36 19,8 C 19,4 C 15,0 C 76 % 1017,0 hPa 0,0 l/m 0 min 0 min 116 W/m 12,9 km/h (3 Bft) 100,00 %
30.10.2022 12:38 19,8 C 19,4 C 15,0 C 76 % 1017,0 hPa 0,0 l/m 0 min 0 min 116 W/m 12,9 km/h (3 Bft) 100,00 %
30.10.2022 12:40 19,8 C 19,4 C 15,0 C 76 % 1016,9 hPa 0,0 l/m 0 min 0 min 120 W/m 12,9 km/h (3 Bft) 97,87 %
30.10.2022 12:42 19,8 C 20,0 C 15,0 C 76 % 1016,9 hPa 0,0 l/m 0 min 0 min 121 W/m 6,4 km/h (2 Bft) 100,00 %
30.10.2022 12:44 19,8 C 20,0 C 15,0 C 76 % 1016,9 hPa 0,0 l/m 0 min 0 min 123 W/m 6,4 km/h (2 Bft) 100,00 %
30.10.2022 12:46 19,9 C 20,0 C 15,0 C 76 % 1016,9 hPa 0,0 l/m 0 min 0 min 124 W/m 9,7 km/h (2 Bft) 100,00 %
30.10.2022 12:48 19,9 C 20,0 C 15,0 C 75 % 1016,9 hPa 0,0 l/m 0 min 0 min 138 W/m 6,4 km/h (2 Bft) 100,00 %
30.10.2022 12:50 19,9 C 20,0 C 15,0 C 76 % 1016,8 hPa 0,0 l/m 0 min 0 min 156 W/m 12,9 km/h (3 Bft) 100,00 %
30.10.2022 12:52 19,9 C 20,6 C 15,0 C 76 % 1016,8 hPa 0,0 l/m 0 min 0 min 184 W/m 6,4 km/h (2 Bft) 100,00 %
30.10.2022 12:54 20,0 C 21,1 C 15,0 C 76 % 1016,8 hPa 0,0 l/m 2 min 0 min 212 W/m 12,9 km/h (3 Bft) 100,00 %
30.10.2022 12:56 20,1 C 21,1 C 15,0 C 76 % 1016,9 hPa 0,0 l/m 2 min 0 min 236 W/m 6,4 km/h (2 Bft) 100,00 %
30.10.2022 12:58 20,1 C 21,7 C 15,0 C 76 % 1016,9 hPa 0,0 l/m 2 min 0 min 259 W/m 16,1 km/h (3 Bft) 100,00 %
30.10.2022 13:00 20,1 C 22,2 C 15,0 C 76 % 1016,9 hPa 0,0 l/m 2 min 0 min 245 W/m 12,9 km/h (3 Bft) 100,00 %
30.10.2022 13:02 20,2 C 21,7 C 15,0 C 75 % 1016,9 hPa 0,0 l/m 2 min 0 min 271 W/m 19,3 km/h (3 Bft) 97,87 %
30.10.2022 13:04 20,2 C 21,7 C 15,0 C 76 % 1016,9 hPa 0,0 l/m 2 min 0 min 300 W/m 12,9 km/h (3 Bft) 100,00 %
30.10.2022 13:06 20,2 C 22,2 C 15,0 C 75 % 1017,0 hPa 0,0 l/m 2 min 0 min 313 W/m 16,1 km/h (3 Bft) 98,31 %
30.10.2022 13:08 20,3 C 22,8 C 15,6 C 75 % 1017,0 hPa 0,0 l/m 2 min 0 min 320 W/m 12,9 km/h (3 Bft) 100,00 %
30.10.2022 13:10 20,3 C 22,2 C 15,6 C 75 % 1017,0 hPa 0,0 l/m 2 min 0 min 315 W/m 16,1 km/h (3 Bft) 97,96 %
30.10.2022 13:12 20,4 C 21,7 C 15,6 C 74 % 1017,0 hPa 0,0 l/m 2 min 0 min 293 W/m 22,5 km/h (4 Bft) 100,00 %
30.10.2022 13:14 20,4 C 21,7 C 15,6 C 74 % 1017,0 hPa 0,0 l/m 2 min 0 min 263 W/m 16,1 km/h (3 Bft) 100,00 %
30.10.2022 13:16 20,4 C 21,1 C 15,6 C 74 % 1017,0 hPa 0,0 l/m 2 min 0 min 261 W/m 6,4 km/h (2 Bft) 97,87 %
30.10.2022 13:18 20,5 C 20,6 C 15,6 C 74 % 1017,0 hPa 0,0 l/m 2 min 0 min 277 W/m 12,9 km/h (3 Bft) 97,87 %
30.10.2022 13:20 20,5 C 20,6 C 15,6 C 74 % 1017,0 hPa 0,0 l/m 2 min 0 min 288 W/m 6,4 km/h (2 Bft) 93,62 %
30.10.2022 13:22 20,6 C 20,6 C 15,0 C 74 % 1017,0 hPa 0,0 l/m 2 min 0 min 278 W/m 6,4 km/h (2 Bft) 95,65 %
30.10.2022 13:24 20,6 C 21,1 C 15,0 C 74 % 1017,0 hPa 0,0 l/m 2 min 0 min 254 W/m 6,4 km/h (2 Bft) 95,74 %
30.10.2022 13:26 20,6 C 20,6 C 15,6 C 74 % 1017,0 hPa 0,0 l/m 2 min 0 min 255 W/m 6,4 km/h (2 Bft) 93,62 %
30.10.2022 13:28 20,6 C 20,6 C 15,6 C 73 % 1016,8 hPa 0,0 l/m 2 min 0 min 254 W/m 12,9 km/h (3 Bft) 95,74 %
30.10.2022 13:30 20,7 C 20,6 C 15,6 C 73 % 1016,9 hPa 0,0 l/m 2 min 0 min 280 W/m 12,9 km/h (3 Bft) 95,74 %
30.10.2022 13:32 20,7 C 20,6 C 15,6 C 73 % 1016,9 hPa 0,0 l/m 2 min 0 min 279 W/m 6,4 km/h (2 Bft) 93,62 %
30.10.2022 13:34 20,7 C 20,6 C 15,6 C 73 % 1016,8 hPa 0,0 l/m 2 min 0 min 285 W/m 12,9 km/h (3 Bft) 95,65 %
30.10.2022 13:36 20,7 C 21,1 C 15,6 C 73 % 1016,8 hPa 0,0 l/m 2 min 0 min 286 W/m 12,9 km/h (3 Bft) 94,92 %
30.10.2022 13:38 20,8 C 21,1 C 15,6 C 73 % 1016,8 hPa 0,0 l/m 2 min 0 min 299 W/m 6,4 km/h (2 Bft) 97,14 %
30.10.2022 13:40 20,8 C 21,1 C 15,6 C 73 % 1016,8 hPa 0,0 l/m 2 min 0 min 286 W/m 6,4 km/h (2 Bft) 93,62 %
30.10.2022 13:42 20,8 C 21,1 C 15,6 C 73 % 1016,8 hPa 0,0 l/m 2 min 0 min 275 W/m 6,4 km/h (2 Bft) 95,74 %
30.10.2022 13:44 20,8 C 21,1 C 15,6 C 73 % 1016,8 hPa 0,0 l/m 2 min 0 min 258 W/m 6,4 km/h (2 Bft) 95,74 %
30.10.2022 13:46 20,9 C 21,1 C 15,6 C 73 % 1016,8 hPa 0,0 l/m 2 min 0 min 258 W/m 6,4 km/h (2 Bft) 95,65 %
30.10.2022 13:48 20,9 C 21,1 C 15,6 C 73 % 1016,8 hPa 0,0 l/m 2 min 0 min 250 W/m 12,9 km/h (3 Bft) 95,74 %
30.10.2022 13:50 20,9 C 21,1 C 15,6 C 73 % 1016,7 hPa 0,0 l/m 2 min 0 min 255 W/m 3,2 km/h (1 Bft) 95,74 %
30.10.2022 13:52 20,9 C 21,1 C 15,6 C 74 % 1016,7 hPa 0,0 l/m 2 min 0 min 235 W/m 3,2 km/h (1 Bft) 95,74 %
30.10.2022 13:54 20,9 C 20,6 C 15,6 C 73 % 1016,7 hPa 0,0 l/m 2 min 0 min 217 W/m 6,4 km/h (2 Bft) 97,87 %
30.10.2022 13:56 20,9 C 20,6 C 15,6 C 73 % 1016,7 hPa 0,0 l/m 2 min 0 min 222 W/m 12,9 km/h (3 Bft) 97,87 %
30.10.2022 13:58 20,9 C 20,6 C 15,6 C 74 % 1016,7 hPa 0,0 l/m 2 min 0 min 217 W/m 6,4 km/h (2 Bft) 97,83 %
30.10.2022 14:00 20,9 C 20,6 C 15,6 C 74 % 1016,7 hPa 0,0 l/m 2 min 0 min 195 W/m 6,4 km/h (2 Bft) 97,87 %
30.10.2022 14:02 20,9 C 20,6 C 15,6 C 74 % 1016,7 hPa 0,0 l/m 2 min 0 min 195 W/m 6,4 km/h (2 Bft) 95,74 %
30.10.2022 14:04 20,9 C 20,6 C 15,6 C 74 % 1016,7 hPa 0,0 l/m 0 min 0 min 173 W/m 6,4 km/h (2 Bft) 97,87 %
30.10.2022 14:06 20,8 C 20,6 C 15,6 C 74 % 1016,7 hPa 0,0 l/m 0 min 0 min 152 W/m 3,2 km/h (1 Bft) 95,74 %
30.10.2022 14:08 20,8 C 20,6 C 15,6 C 74 % 1016,7 hPa 0,0 l/m 0 min 0 min 156 W/m 3,2 km/h (1 Bft) 97,87 %
30.10.2022 14:10 20,8 C 20,6 C 15,6 C 74 % 1016,7 hPa 0,0 l/m 0 min 0 min 153 W/m 3,2 km/h (1 Bft) 100,00 %
30.10.2022 14:12 20,8 C 20,6 C 15,6 C 74 % 1016,7 hPa 0,0 l/m 0 min 0 min 161 W/m 9,7 km/h (2 Bft) 97,87 %
30.10.2022 14:14 20,8 C 20,6 C 15,6 C 74 % 1016,7 hPa 0,0 l/m 2 min 0 min 176 W/m 6,4 km/h (2 Bft) 97,87 %
30.10.2022 14:16 20,8 C 20,6 C 15,0 C 75 % 1016,7 hPa 0,0 l/m 0 min 0 min 166 W/m 3,2 km/h (1 Bft) 97,87 %
30.10.2022 14:18 20,7 C 20,6 C 15,0 C 75 % 1016,7 hPa 0,0 l/m 2 min 0 min 170 W/m 3,2 km/h (1 Bft) 97,87 %
30.10.2022 14:20 20,7 C 20,6 C 15,0 C 75 % 1016,7 hPa 0,0 l/m 0 min 0 min 165 W/m 6,4 km/h (2 Bft) 97,87 %
30.10.2022 14:22 20,7 C 20,6 C 15,0 C 75 % 1016,7 hPa 0,0 l/m 2 min 0 min 171 W/m 6,4 km/h (2 Bft) 95,65 %
30.10.2022 14:24 20,7 C 20,6 C 15,0 C 75 % 1016,7 hPa 0,0 l/m 2 min 0 min 181 W/m 6,4 km/h (2 Bft) 97,87 %
30.10.2022 14:26 20,7 C 20,6 C 15,6 C 75 % 1016,7 hPa 0,0 l/m 2 min 0 min 198 W/m 3,2 km/h (1 Bft) 97,87 %
30.10.2022 14:28 20,7 C 20,6 C 15,6 C 75 % 1016,7 hPa 0,0 l/m 2 min 0 min 196 W/m 6,4 km/h (2 Bft) 97,87 %
30.10.2022 14:30 20,7 C 20,6 C 15,6 C 75 % 1016,7 hPa 0,0 l/m 2 min 0 min 199 W/m 6,4 km/h (2 Bft) 97,87 %
30.10.2022 14:32 20,7 C 20,6 C 15,6 C 75 % 1016,7 hPa 0,0 l/m 2 min 0 min 189 W/m 9,7 km/h (2 Bft) 97,87 %
30.10.2022 14:34 20,7 C 20,6 C 15,6 C 75 % 1016,7 hPa 0,0 l/m 2 min 0 min 201 W/m 6,4 km/h (2 Bft) 97,83 %
30.10.2022 14:36 20,7 C 21,1 C 15,6 C 75 % 1016,7 hPa 0,0 l/m 2 min 0 min 203 W/m 9,7 km/h (2 Bft) 97,87 %
30.10.2022 14:38 20,7 C 21,1 C 15,6 C 75 % 1016,7 hPa 0,0 l/m 2 min 0 min 205 W/m 9,7 km/h (2 Bft) 97,87 %
30.10.2022 14:40 20,8 C 21,1 C 15,6 C 75 % 1016,8 hPa 0,0 l/m 2 min 0 min 205 W/m 6,4 km/h (2 Bft) 95,74 %
30.10.2022 14:42 20,8 C 21,1 C 15,6 C 75 % 1016,8 hPa 0,0 l/m 2 min 0 min 207 W/m 3,2 km/h (1 Bft) 95,74 %
30.10.2022 14:44 20,8 C 21,1 C 15,6 C 75 % 1016,8 hPa 0,0 l/m 2 min 0 min 201 W/m 6,4 km/h (2 Bft) 97,87 %
30.10.2022 14:46 20,8 C 21,1 C 15,6 C 75 % 1016,8 hPa 0,0 l/m 2 min 0 min 185 W/m 3,2 km/h (1 Bft) 97,83 %
30.10.2022 14:48 20,8 C 21,1 C 15,6 C 76 % 1016,7 hPa 0,0 l/m 2 min 0 min 187 W/m 6,4 km/h (2 Bft) 97,87 %
30.10.2022 14:50 20,8 C 21,1 C 15,6 C 75 % 1016,7 hPa 0,0 l/m 2 min 0 min 175 W/m 6,4 km/h (2 Bft) 97,87 %
30.10.2022 14:52 20,9 C 21,1 C 15,6 C 75 % 1016,7 hPa 0,0 l/m 2 min 0 min 176 W/m 9,7 km/h (2 Bft) 97,87 %
30.10.2022 14:54 20,9 C 21,1 C 15,6 C 75 % 1016,7 hPa 0,0 l/m 2 min 0 min 162 W/m 6,4 km/h (2 Bft) 97,87 %
30.10.2022 14:56 20,9 C 20,6 C 15,6 C 75 % 1016,7 hPa 0,0 l/m 2 min 0 min 181 W/m 3,2 km/h (1 Bft) 97,87 %
30.10.2022 14:58 20,9 C 20,6 C 15,6 C 76 % 1016,6 hPa 0,0 l/m 2 min 0 min 201 W/m 6,4 km/h (2 Bft) 100,00 %
30.10.2022 15:00 20,9 C 20,6 C 15,6 C 76 % 1016,6 hPa 0,0 l/m 2 min 0 min 184 W/m 6,4 km/h (2 Bft) 100,00 %
30.10.2022 15:02 20,9 C 20,6 C 15,6 C 76 % 1016,6 hPa 0,0 l/m 2 min 0 min 169 W/m 3,2 km/h (1 Bft) 100,00 %
30.10.2022 15:04 20,9 C 20,6 C 15,6 C 76 % 1016,5 hPa 0,0 l/m 2 min 0 min 204 W/m 6,4 km/h (2 Bft) 91,49 %
30.10.2022 15:06 20,9 C 20,6 C 15,6 C 76 % 1016,5 hPa 0,0 l/m 2 min 0 min 199 W/m 3,2 km/h (1 Bft) 100,00 %
30.10.2022 15:10 20,9 C 20,6 C 15,6 C 76 % 1016,5 hPa 0,0 l/m 4 min 0 min 183 W/m 0,0 km/h (0 Bft) 100,00 %
30.10.2022 15:15 20,9 C 20,6 C 15,6 C 76 % 1016,4 hPa 0,0 l/m 5 min 0 min 192 W/m 3,2 km/h (1 Bft) 98,11 %
30.10.2022 15:16 20,9 C 20,6 C 15,6 C 76 % 1016,4 hPa 0,0 l/m 1 min 0 min 206 W/m 3,2 km/h (1 Bft) 100,00 %
30.10.2022 15:18 21,0 C 20,6 C 15,6 C 77 % 1016,4 hPa 0,0 l/m 2 min 0 min 195 W/m 3,2 km/h (1 Bft) 100,00 %
30.10.2022 15:20 21,0 C 20,6 C 15,6 C 76 % 1016,5 hPa 0,0 l/m 2 min 0 min 169 W/m 3,2 km/h (1 Bft) 97,87 %
30.10.2022 15:22 20,9 C 20,6 C 15,6 C 77 % 1016,4 hPa 0,0 l/m 2 min 0 min 144 W/m 3,2 km/h (1 Bft) 100,00 %
30.10.2022 15:24 21,0 C 20,6 C 15,6 C 77 % 1016,4 hPa 0,0 l/m 2 min 0 min 132 W/m 3,2 km/h (1 Bft) 100,00 %
30.10.2022 15:26 21,0 C 20,6 C 15,0 C 77 % 1016,4 hPa 0,0 l/m 2 min 0 min 128 W/m 3,2 km/h (1 Bft) 95,74 %
30.10.2022 15:28 21,0 C 20,6 C 15,0 C 77 % 1016,4 hPa 0,0 l/m 2 min 0 min 117 W/m 0,0 km/h (0 Bft) 97,87 %
30.10.2022 15:30 20,9 C 20,0 C 15,0 C 77 % 1016,5 hPa 0,0 l/m 0 min 0 min 107 W/m 3,2 km/h (1 Bft) 100,00 %
30.10.2022 15:32 20,9 C 20,0 C 15,0 C 77 % 1016,4 hPa 0,0 l/m 2 min 0 min 112 W/m 6,4 km/h (2 Bft) 100,00 %
30.10.2022 15:34 20,9 C 20,0 C 15,0 C 77 % 1016,5 hPa 0,0 l/m 2 min 0 min 116 W/m 3,2 km/h (1 Bft) 95,74 %
30.10.2022 15:36 20,9 C 20,0 C 15,0 C 77 % 1016,5 hPa 0,0 l/m 0 min 0 min 103 W/m 3,2 km/h (1 Bft) 96,55 %
30.10.2022 15:38 20,9 C 20,0 C 15,0 C 78 % 1016,4 hPa 0,0 l/m 0 min 0 min 96 W/m 3,2 km/h (1 Bft) 97,14 %
30.10.2022 15:40 20,9 C 20,0 C 15,0 C 78 % 1016,4 hPa 0,0 l/m 0 min 0 min 95 W/m 3,2 km/h (1 Bft) 97,87 %
30.10.2022 15:42 20,9 C 20,0 C 15,0 C 78 % 1016,4 hPa 0,0 l/m 0 min 0 min 94 W/m 3,2 km/h (1 Bft) 95,74 %
30.10.2022 15:44 20,9 C 20,0 C 15,0 C 78 % 1016,5 hPa 0,0 l/m 0 min 0 min 93 W/m 3,2 km/h (1 Bft) 97,87 %
30.10.2022 15:46 20,8 C 20,0 C 15,0 C 78 % 1016,5 hPa 0,0 l/m 0 min 0 min 91 W/m 3,2 km/h (1 Bft) 97,87 %
30.10.2022 15:48 20,8 C 20,0 C 15,0 C 77 % 1016,5 hPa 0,0 l/m 0 min 0 min 89 W/m 6,4 km/h (2 Bft) 97,83 %
30.10.2022 15:50 20,8 C 20,0 C 15,0 C 78 % 1016,5 hPa 0,0 l/m 0 min 0 min 86 W/m 3,2 km/h (1 Bft) 97,87 %
30.10.2022 15:52 20,8 C 20,0 C 15,0 C 77 % 1016,5 hPa 0,0 l/m 0 min 0 min 83 W/m 3,2 km/h (1 Bft) 95,74 %
30.10.2022 15:54 20,7 C 20,0 C 15,0 C 77 % 1016,5 hPa 0,0 l/m 0 min 0 min 79 W/m 3,2 km/h (1 Bft) 97,87 %
30.10.2022 15:56 20,7 C 19,4 C 15,0 C 77 % 1016,5 hPa 0,0 l/m 0 min 0 min 77 W/m 0,0 km/h (0 Bft) 97,87 %
30.10.2022 15:58 20,7 C 19,4 C 15,0 C 77 % 1016,5 hPa 0,0 l/m 0 min 0 min 74 W/m 3,2 km/h (1 Bft) 95,74 %
30.10.2022 16:00 20,6 C 19,4 C 15,0 C 77 % 1016,6 hPa 0,0 l/m 0 min 0 min 71 W/m 3,2 km/h (1 Bft) 97,83 %
30.10.2022 16:02 20,6 C 19,4 C 15,0 C 77 % 1016,5 hPa 0,0 l/m 0 min 0 min 68 W/m 3,2 km/h (1 Bft) 97,87 %
30.10.2022 16:04 20,6 C 19,4 C 15,0 C 77 % 1016,6 hPa 0,0 l/m 0 min 0 min 63 W/m 0,0 km/h (0 Bft) 97,87 %
30.10.2022 16:06 20,6 C 19,4 C 15,0 C 77 % 1016,6 hPa 0,0 l/m 0 min 0 min 60 W/m 3,2 km/h (1 Bft) 96,61 %
30.10.2022 16:08 20,6 C 19,4 C 14,4 C 78 % 1016,6 hPa 0,0 l/m 0 min 0 min 58 W/m 0,0 km/h (0 Bft) 100,00 %
30.10.2022 16:10 20,6 C 19,4 C 14,4 C 78 % 1016,6 hPa 0,0 l/m 0 min 0 min 58 W/m 3,2 km/h (1 Bft) 100,00 %
30.10.2022 16:12 20,5 C 19,4 C 14,4 C 78 % 1016,7 hPa 0,0 l/m 0 min 0 min 58 W/m 0,0 km/h (0 Bft) 100,00 %
30.10.2022 16:14 20,5 C 18,9 C 14,4 C 78 % 1016,7 hPa 0,0 l/m 0 min 0 min 58 W/m 3,2 km/h (1 Bft) 100,00 %
30.10.2022 16:16 20,4 C 18,9 C 13,9 C 78 % 1016,7 hPa 0,0 l/m 0 min 0 min 57 W/m 3,2 km/h (1 Bft) 97,87 %
30.10.2022 16:18 20,4 C 18,9 C 13,9 C 78 % 1016,7 hPa 0,0 l/m 0 min 0 min 56 W/m 3,2 km/h (1 Bft) 97,87 %
30.10.2022 16:20 20,4 C 18,9 C 13,9 C 78 % 1016,7 hPa 0,0 l/m 0 min 0 min 55 W/m 3,2 km/h (1 Bft) 97,87 %
30.10.2022 16:22 20,4 C 18,9 C 13,9 C 78 % 1016,7 hPa 0,0 l/m 0 min 0 min 53 W/m 3,2 km/h (1 Bft) 97,87 %
30.10.2022 16:24 20,3 C 18,9 C 13,9 C 79 % 1016,7 hPa 0,0 l/m 2 min 0 min 51 W/m 3,2 km/h (1 Bft) 97,83 %
30.10.2022 16:26 20,3 C 18,9 C 13,9 C 79 % 1016,8 hPa 0,0 l/m 2 min 0 min 49 W/m 0,0 km/h (0 Bft) 95,74 %
30.10.2022 16:28 20,3 C 18,9 C 13,3 C 79 % 1016,8 hPa 0,0 l/m 0 min 0 min 46 W/m 0,0 km/h (0 Bft) 97,87 %
30.10.2022 16:30 20,3 C 18,9 C 13,3 C 79 % 1016,8 hPa 0,0 l/m 0 min 0 min 43 W/m 3,2 km/h (1 Bft) 95,74 %
30.10.2022 16:32 20,2 C 18,9 C 13,3 C 79 % 1016,8 hPa 0,0 l/m 0 min 0 min 40 W/m 0,0 km/h (0 Bft) 97,87 %
30.10.2022 16:34 20,2 C 18,3 C 13,3 C 79 % 1016,8 hPa 0,0 l/m 0 min 0 min 38 W/m 0,0 km/h (0 Bft) 97,87 %
30.10.2022 16:36 20,2 C 18,3 C 13,3 C 79 % 1016,8 hPa 0,0 l/m 0 min 0 min 36 W/m 0,0 km/h (0 Bft) 98,28 %
30.10.2022 16:38 20,2 C 18,3 C 13,3 C 79 % 1016,8 hPa 0,0 l/m 0 min 0 min 34 W/m 0,0 km/h (0 Bft) 94,29 %
30.10.2022 16:40 20,2 C 18,3 C 13,3 C 79 % 1016,9 hPa 0,0 l/m 2 min 0 min 32 W/m 0,0 km/h (0 Bft) 97,87 %
30.10.2022 16:42 20,1 C 18,3 C 13,3 C 79 % 1016,9 hPa 0,0 l/m 2 min 0 min 32 W/m 0,0 km/h (0 Bft) 93,62 %
30.10.2022 16:44 20,1 C 18,3 C 13,3 C 79 % 1017,0 hPa 0,0 l/m 2 min 0 min 30 W/m 3,2 km/h (1 Bft) 95,74 %
30.10.2022 16:46 20,1 C 18,3 C 12,8 C 80 % 1017,0 hPa 0,0 l/m 2 min 0 min 30 W/m 0,0 km/h (0 Bft) 95,74 %
30.10.2022 16:48 20,0 C 17,8 C 12,8 C 80 % 1016,9 hPa 0,0 l/m 2 min 0 min 30 W/m 0,0 km/h (0 Bft) 95,65 %
30.10.2022 16:50 20,0 C 17,8 C 12,8 C 80 % 1017,0 hPa 0,0 l/m 2 min 0 min 29 W/m 0,0 km/h (0 Bft) 95,74 %
30.10.2022 16:52 19,9 C 17,8 C 12,8 C 80 % 1017,0 hPa 0,0 l/m 2 min 0 min 27 W/m 0,0 km/h (0 Bft) 95,74 %
30.10.2022 16:54 19,9 C 17,8 C 12,8 C 80 % 1017,0 hPa 0,0 l/m 2 min 0 min 26 W/m 0,0 km/h (0 Bft) 95,74 %
30.10.2022 16:56 19,9 C 17,8 C 12,8 C 80 % 1017,1 hPa 0,0 l/m 2 min 0 min 23 W/m 0,0 km/h (0 Bft) 95,74 %
30.10.2022 16:58 19,8 C 17,8 C 12,8 C 80 % 1017,1 hPa 0,0 l/m 2 min 0 min 20 W/m 0,0 km/h (0 Bft) 95,74 %
30.10.2022 17:00 19,8 C 17,2 C 12,8 C 80 % 1017,1 hPa 0,0 l/m 0 min 0 min 17 W/m 3,2 km/h (1 Bft) 95,65 %
30.10.2022 17:02 19,8 C 17,2 C 12,8 C 80 % 1017,1 hPa 0,0 l/m 0 min 0 min 14 W/m 0,0 km/h (0 Bft) 93,62 %
30.10.2022 17:04 19,7 C 17,2 C 12,8 C 80 % 1017,1 hPa 0,0 l/m 0 min 0 min 11 W/m 0,0 km/h (0 Bft) 97,87 %
30.10.2022 17:06 19,7 C 16,7 C 12,2 C 80 % 1017,1 hPa 0,0 l/m 0 min 0 min 8 W/m 0,0 km/h (0 Bft) 98,31 %
30.10.2022 17:08 19,6 C 16,7 C 12,2 C 81 % 1017,1 hPa 0,0 l/m 0 min 0 min 6 W/m 0,0 km/h (0 Bft) 97,14 %
30.10.2022 17:10 19,6 C 16,7 C 12,2 C 81 % 1017,2 hPa 0,0 l/m 0 min 0 min 5 W/m 0,0 km/h (0 Bft) 95,74 %
30.10.2022 17:12 19,5 C 16,7 C 12,2 C 81 % 1017,2 hPa 0,0 l/m 0 min 0 min 0 W/m 0,0 km/h (0 Bft) 97,83 %
30.10.2022 17:14 19,4 C 16,7 C 12,2 C 81 % 1017,2 hPa 0,0 l/m 0 min 0 min 0 W/m 0,0 km/h (0 Bft) 97,87 %
30.10.2022 17:16 19,4 C 16,1 C 12,2 C 81 % 1017,3 hPa 0,0 l/m 0 min 0 min 0 W/m 3,2 km/h (1 Bft) 97,87 %
30.10.2022 17:18 19,3 C 16,1 C 12,2 C 81 % 1017,4 hPa 0,0 l/m 0 min 0 min 0 W/m 3,2 km/h (1 Bft) 95,74 %
30.10.2022 17:20 19,2 C 16,1 C 12,2 C 82 % 1017,3 hPa 0,0 l/m 0 min 0 min 0 W/m 0,0 km/h (0 Bft) 95,74 %
30.10.2022 17:22 19,2 C 16,1 C 11,7 C 82 % 1017,4 hPa 0,0 l/m 0 min 0 min 0 W/m 0,0 km/h (0 Bft) 97,87 %
30.10.2022 17:24 19,1 C 16,1 C 11,7 C 82 % 1017,4 hPa 0,0 l/m 0 min 0 min 0 W/m 0,0 km/h (0 Bft) 100,00 %
30.10.2022 17:26 19,0 C 16,1 C 11,7 C 82 % 1017,4 hPa 0,0 l/m 0 min 0 min 0 W/m 0,0 km/h (0 Bft) 97,87 %
30.10.2022 17:28 18,9 C 15,6 C 11,7 C 82 % 1017,5 hPa 0,0 l/m 0 min 0 min 0 W/m 0,0 km/h (0 Bft) 97,87 %
30.10.2022 17:30 18,8 C 15,6 C 11,7 C 83 % 1017,5 hPa 0,0 l/m 0 min 0 min 0 W/m 0,0 km/h (0 Bft) 100,00 %
30.10.2022 17:32 18,8 C 15,6 C 11,7 C 83 % 1017,5 hPa 0,0 l/m 0 min 0 min 0 W/m 0,0 km/h (0 Bft) 97,87 %
30.10.2022 17:34 18,7 C 15,6 C 11,7 C 83 % 1017,6 hPa 0,0 l/m 0 min 0 min 0 W/m 0,0 km/h (0 Bft) 100,00 %
30.10.2022 17:36 18,7 C 15,6 C 11,7 C 83 % 1017,6 hPa 0,0 l/m 0 min 0 min 0 W/m 0,0 km/h (0 Bft) 96,55 %
30.10.2022 17:38 18,6 C 15,6 C 11,7 C 83 % 1017,7 hPa 0,0 l/m 0 min 0 min 0 W/m 0,0 km/h (0 Bft) 100,00 %
30.10.2022 17:40 18,5 C 15,6 C 11,1 C 83 % 1017,7 hPa 0,0 l/m 0 min 0 min 0 W/m 0,0 km/h (0 Bft) 97,87 %
30.10.2022 17:42 18,4 C 15,6 C 11,1 C 83 % 1017,7 hPa 0,0 l/m 0 min 0 min 0 W/m 0,0 km/h (0 Bft) 97,87 %
30.10.2022 17:44 18,3 C 15,0 C 11,1 C 83 % 1017,7 hPa 0,0 l/m 0 min 0 min 0 W/m 3,2 km/h (1 Bft) 95,74 %
30.10.2022 17:46 18,3 C 15,0 C 11,1 C 84 % 1017,6 hPa 0,0 l/m 0 min 0 min 0 W/m 0,0 km/h (0 Bft) 97,87 %
30.10.2022 17:48 18,2 C 15,0 C 11,1 C 83 % 1017,6 hPa 0,0 l/m 0 min 0 min 0 W/m 0,0 km/h (0 Bft) 97,83 %
30.10.2022 17:50 18,1 C 15,0 C 11,1 C 84 % 1017,6 hPa 0,0 l/m 0 min 0 min 0 W/m 0,0 km/h (0 Bft) 93,62 %
30.10.2022 17:52 18,0 C 15,0 C 11,1 C 84 % 1017,6 hPa 0,0 l/m 0 min 0 min 0 W/m 0,0 km/h (0 Bft) 97,87 %
30.10.2022 17:54 17,9 C 15,0 C 11,1 C 84 % 1017,6 hPa 0,0 l/m 0 min 0 min 0 W/m 0,0 km/h (0 Bft) 97,87 %
30.10.2022 17:56 17,9 C 15,0 C 11,1 C 84 % 1017,7 hPa 0,0 l/m 0 min 0 min 0 W/m 0,0 km/h (0 Bft) 97,87 %
30.10.2022 17:58 17,8 C 15,0 C 10,6 C 84 % 1017,8 hPa 0,0 l/m 0 min 0 min 0 W/m 0,0 km/h (0 Bft) 97,87 %
30.10.2022 18:00 17,7 C 14,4 C 10,6 C 84 % 1017,8 hPa 0,0 l/m 0 min 0 min 0 W/m 0,0 km/h (0 Bft) 95,65 %
30.10.2022 18:02 17,6 C 14,4 C 10,6 C 85 % 1017,8 hPa 0,0 l/m 0 min 0 min 0 W/m 0,0 km/h (0 Bft) 98,11 %
30.10.2022 18:04 17,6 C 14,4 C 10,6 C 85 % 1017,8 hPa 0,0 l/m 0 min 0 min 0 W/m 0,0 km/h (0 Bft) 97,87 %
30.10.2022 18:08 17,4 C 14,4 C 10,6 C 85 % 1017,9 hPa 0,0 l/m 0 min 0 min 0 W/m 3,2 km/h (1 Bft) 98,96 %
30.10.2022 18:10 17,3 C 14,4 C 10,6 C 85 % 1018,0 hPa 0,0 l/m 0 min 0 min 0 W/m 0,0 km/h (0 Bft) 100,00 %
30.10.2022 18:12 17,3 C 14,4 C 10,6 C 86 % 1018,1 hPa 0,0 l/m 0 min 0 min 0 W/m 0,0 km/h (0 Bft) 100,00 %
30.10.2022 18:14 17,2 C 14,4 C 10,6 C 86 % 1018,1 hPa 0,0 l/m 0 min 0 min 0 W/m 0,0 km/h (0 Bft) 100,00 %
30.10.2022 18:16 17,2 C 14,4 C 10,6 C 86 % 1018,2 hPa 0,0 l/m 0 min 0 min 0 W/m 0,0 km/h (0 Bft) 97,87 %
30.10.2022 18:18 17,1 C 14,4 C 10,6 C 86 % 1018,3 hPa 0,0 l/m 0 min 0 min 0 W/m 0,0 km/h (0 Bft) 100,00 %
30.10.2022 18:20 17,1 C 14,4 C 10,6 C 86 % 1018,3 hPa 0,0 l/m 0 min 0 min 0 W/m 0,0 km/h (0 Bft) 100,00 %
30.10.2022 18:22 17,0 C 14,4 C 10,6 C 86 % 1018,3 hPa 0,0 l/m 0 min 0 min 0 W/m 0,0 km/h (0 Bft) 100,00 %
30.10.2022 18:24 16,9 C 14,4 C 10,6 C 87 % 1018,4 hPa 0,0 l/m 0 min 0 min 0 W/m 0,0 km/h (0 Bft) 100,00 %
30.10.2022 18:26 16,9 C 14,4 C 10,6 C 87 % 1018,3 hPa 0,0 l/m 0 min 0 min 0 W/m 0,0 km/h (0 Bft) 100,00 %
30.10.2022 18:28 16,8 C 14,4 C 10,6 C 87 % 1018,3 hPa 0,0 l/m 0 min 0 min 0 W/m 0,0 km/h (0 Bft) 100,00 %
30.10.2022 18:30 16,8 C 14,4 C 10,6 C 87 % 1018,3 hPa 0,0 l/m 0 min 0 min 0 W/m 0,0 km/h (0 Bft) 100,00 %
30.10.2022 18:32 16,7 C 14,4 C 10,6 C 87 % 1018,4 hPa 0,0 l/m 0 min 0 min 0 W/m 0,0 km/h (0 Bft) 100,00 %
30.10.2022 18:34 16,7 C 14,4 C 10,6 C 87 % 1018,4 hPa 0,0 l/m 0 min 0 min 0 W/m 3,2 km/h (1 Bft) 97,87 %
30.10.2022 18:36 16,7 C 15,0 C 10,6 C 87 % 1018,5 hPa 0,0 l/m 0 min 0 min 0 W/m 3,2 km/h (1 Bft) 100,00 %
30.10.2022 18:38 16,6 C 15,0 C 10,6 C 88 % 1018,4 hPa 0,0 l/m 0 min 0 min 0 W/m 3,2 km/h (1 Bft) 100,00 %
30.10.2022 18:40 16,6 C 15,0 C 11,1 C 88 % 1018,4 hPa 0,0 l/m 0 min 0 min 0 W/m 3,2 km/h (1 Bft) 97,87 %
30.10.2022 18:42 16,6 C 15,0 C 11,1 C 88 % 1018,4 hPa 0,0 l/m 0 min 0 min 0 W/m 0,0 km/h (0 Bft) 97,87 %
30.10.2022 18:44 16,6 C 15,6 C 11,1 C 88 % 1018,5 hPa 0,0 l/m 0 min 0 min 0 W/m 3,2 km/h (1 Bft) 97,87 %
30.10.2022 18:46 16,5 C 15,6 C 11,1 C 88 % 1018,5 hPa 0,0 l/m 0 min 0 min 0 W/m 3,2 km/h (1 Bft) 97,87 %
30.10.2022 18:48 16,4 C 15,6 C 11,1 C 88 % 1018,4 hPa 0,0 l/m 0 min 0 min 0 W/m 0,0 km/h (0 Bft) 97,83 %
30.10.2022 18:50 16,4 C 15,6 C 11,1 C 88 % 1018,5 hPa 0,0 l/m 0 min 0 min 0 W/m 3,2 km/h (1 Bft) 97,87 %
30.10.2022 18:52 16,4 C 15,6 C 11,1 C 88 % 1018,5 hPa 0,0 l/m 0 min 0 min 0 W/m 3,2 km/h (1 Bft) 97,87 %
30.10.2022 18:54 16,4 C 15,6 C 11,1 C 88 % 1018,5 hPa 0,0 l/m 0 min 0 min 0 W/m 0,0 km/h (0 Bft) 97,87 %
30.10.2022 18:56 16,3 C 15,6 C 11,1 C 88 % 1018,6 hPa 0,0 l/m 0 min 0 min 0 W/m 0,0 km/h (0 Bft) 95,74 %
30.10.2022 18:58 16,3 C 15,6 C 11,1 C 88 % 1018,6 hPa 0,0 l/m 0 min 0 min 0 W/m 0,0 km/h (0 Bft) 97,87 %
30.10.2022 19:00 16,3 C 15,6 C 11,1 C 88 % 1018,6 hPa 0,0 l/m 0 min 0 min 0 W/m 0,0 km/h (0 Bft) 97,83 %
30.10.2022 19:02 16,3 C 15,6 C 11,1 C 88 % 1018,6 hPa 0,0 l/m 0 min 0 min 0 W/m 0,0 km/h (0 Bft) 97,87 %
30.10.2022 19:04 16,3 C 15,6 C 11,1 C 88 % 1018,7 hPa 0,0 l/m 0 min 0 min 0 W/m 0,0 km/h (0 Bft) 97,87 %
30.10.2022 19:06 16,3 C 15,6 C 11,1 C 88 % 1018,6 hPa 0,0 l/m 0 min 0 min 0 W/m 0,0 km/h (0 Bft) 97,87 %
30.10.2022 19:08 16,2 C 15,0 C 11,1 C 87 % 1018,7 hPa 0,0 l/m 0 min 0 min 0 W/m 0,0 km/h (0 Bft) 95,74 %
30.10.2022 19:10 16,2 C 15,0 C 11,1 C 87 % 1018,7 hPa 0,0 l/m 0 min 0 min 0 W/m 0,0 km/h (0 Bft) 95,74 %
30.10.2022 19:12 16,2 C 15,0 C 11,1 C 87 % 1018,7 hPa 0,0 l/m 0 min 0 min 0 W/m 0,0 km/h (0 Bft) 97,83 %
30.10.2022 19:14 16,2 C 15,0 C 11,1 C 87 % 1018,8 hPa 0,0 l/m 0 min 0 min 0 W/m 0,0 km/h (0 Bft) 97,87 %
30.10.2022 19:16 16,2 C 15,0 C 11,1 C 87 % 1018,7 hPa 0,0 l/m 0 min 0 min 0 W/m 0,0 km/h (0 Bft) 95,74 %
30.10.2022 19:18 16,2 C 15,0 C 10,6 C 87 % 1018,7 hPa 0,0 l/m 0 min 0 min 0 W/m 0,0 km/h (0 Bft) 97,87 %
30.10.2022 19:20 16,2 C 15,0 C 10,6 C 87 % 1018,8 hPa 0,0 l/m 0 min 0 min 0 W/m 0,0 km/h (0 Bft) 100,00 %
30.10.2022 19:22 16,2 C 15,0 C 10,6 C 87 % 1018,9 hPa 0,0 l/m 0 min 0 min 0 W/m 0,0 km/h (0 Bft) 97,83 %
30.10.2022 19:24 16,2 C 15,0 C 10,6 C 87 % 1018,9 hPa 0,0 l/m 0 min 0 min 0 W/m 0,0 km/h (0 Bft) 93,62 %
30.10.2022 19:26 16,2 C 15,0 C 10,6 C 87 % 1018,9 hPa 0,0 l/m 0 min 0 min 0 W/m 0,0 km/h (0 Bft) 100,00 %
30.10.2022 19:28 16,1 C 15,0 C 10,6 C 87 % 1018,9 hPa 0,0 l/m 0 min 0 min 0 W/m 0,0 km/h (0 Bft) 100,00 %
30.10.2022 19:30 16,1 C 15,0 C 11,1 C 87 % 1019,1 hPa 0,0 l/m 0 min 0 min 0 W/m 0,0 km/h (0 Bft) 97,87 %
30.10.2022 19:32 16,1 C 15,0 C 11,1 C 87 % 1019,1 hPa 0,0 l/m 0 min 0 min 0 W/m 0,0 km/h (0 Bft) 93,62 %
30.10.2022 19:34 16,1 C 15,0 C 11,1 C 87 % 1019,1 hPa 0,0 l/m 0 min 0 min 0 W/m 0,0 km/h (0 Bft) 93,48 %
30.10.2022 19:36 16,1 C 15,0 C 11,1 C 87 % 1019,1 hPa 0,0 l/m 0 min 0 min 0 W/m 0,0 km/h (0 Bft) 95,74 %
30.10.2022 19:38 16,1 C 15,0 C 11,1 C 87 % 1019,1 hPa 0,0 l/m 0 min 0 min 0 W/m 0,0 km/h (0 Bft) 95,74 %
30.10.2022 19:40 16,1 C 15,0 C 11,1 C 87 % 1019,1 hPa 0,0 l/m 0 min 0 min 0 W/m 0,0 km/h (0 Bft) 93,62 %
30.10.2022 19:42 16,1 C 15,0 C 10,6 C 87 % 1019,1 hPa 0,0 l/m 0 min 0 min 0 W/m 0,0 km/h (0 Bft) 95,74 %
30.10.2022 19:44 16,1 C 15,0 C 10,6 C 87 % 1019,1 hPa 0,0 l/m 0 min 0 min 0 W/m 0,0 km/h (0 Bft) 95,74 %
30.10.2022 19:46 16,1 C 15,0 C 10,6 C 87 % 1019,1 hPa 0,0 l/m 0 min 0 min 0 W/m 0,0 km/h (0 Bft) 95,65 %
30.10.2022 19:48 16,1 C 15,0 C 10,6 C 87 % 1019,1 hPa 0,0 l/m 0 min 0 min 0 W/m 0,0 km/h (0 Bft) 97,87 %
30.10.2022 19:50 16,1 C 14,4 C 10,6 C 87 % 1019,1 hPa 0,0 l/m 0 min 0 min 0 W/m 0,0 km/h (0 Bft) 91,49 %
30.10.2022 19:52 16,0 C 14,4 C 10,6 C 87 % 1019,1 hPa 0,0 l/m 0 min 0 min 0 W/m 0,0 km/h (0 Bft) 95,74 %
30.10.2022 19:54 16,0 C 14,4 C 10,6 C 87 % 1019,2 hPa 0,0 l/m 0 min 0 min 0 W/m 0,0 km/h (0 Bft) 95,74 %
30.10.2022 19:56 16,0 C 14,4 C 10,6 C 87 % 1019,2 hPa 0,0 l/m 0 min 0 min 0 W/m 0,0 km/h (0 Bft) 93,62 %
30.10.2022 19:58 16,0 C 14,4 C 10,6 C 87 % 1019,3 hPa 0,0 l/m 0 min 0 min 0 W/m 0,0 km/h (0 Bft) 95,65 %
30.10.2022 20:00 16,0 C 14,4 C 10,6 C 87 % 1019,3 hPa 0,0 l/m 0 min 0 min 0 W/m 0,0 km/h (0 Bft) 97,87 %
30.10.2022 20:02 16,0 C 14,4 C 10,6 C 87 % 1019,3 hPa 0,0 l/m 0 min 0 min 0 W/m 0,0 km/h (0 Bft) 95,74 %
30.10.2022 20:04 15,9 C 14,4 C 10,6 C 87 % 1019,3 hPa 0,0 l/m 0 min 0 min 0 W/m 0,0 km/h (0 Bft) 97,87 %
30.10.2022 20:06 15,9 C 14,4 C 10,6 C 87 % 1019,4 hPa 0,0 l/m 0 min 0 min 0 W/m 0,0 km/h (0 Bft) 100,00 %
30.10.2022 20:08 15,9 C 14,4 C 10,6 C 87 % 1019,4 hPa 0,0 l/m 0 min 0 min 0 W/m 0,0 km/h (0 Bft) 95,74 %
30.10.2022 20:10 15,9 C 14,4 C 10,6 C 87 % 1019,4 hPa 0,0 l/m 0 min 0 min 0 W/m 0,0 km/h (0 Bft) 97,83 %
30.10.2022 20:12 15,9 C 14,4 C 10,6 C 87 % 1019,4 hPa 0,0 l/m 0 min 0 min 0 W/m 0,0 km/h (0 Bft) 95,74 %
30.10.2022 20:14 15,9 C 14,4 C 10,6 C 87 % 1019,4 hPa 0,0 l/m 0 min 0 min 0 W/m 0,0 km/h (0 Bft) 97,87 %
30.10.2022 20:16 15,8 C 14,4 C 10,6 C 87 % 1019,4 hPa 0,0 l/m 0 min 0 min 0 W/m 0,0 km/h (0 Bft) 97,87 %
30.10.2022 20:18 15,8 C 14,4 C 10,6 C 87 % 1019,4 hPa 0,0 l/m 0 min 0 min 0 W/m 0,0 km/h (0 Bft) 95,74 %
30.10.2022 20:20 15,8 C 14,4 C 10,6 C 87 % 1019,5 hPa 0,0 l/m 0 min 0 min 0 W/m 0,0 km/h (0 Bft) 100,00 %
30.10.2022 20:22 15,8 C 14,4 C 10,6 C 87 % 1019,5 hPa 0,0 l/m 0 min 0 min 0 W/m 0,0 km/h (0 Bft) 97,83 %
30.10.2022 20:24 15,8 C 14,4 C 10,6 C 87 % 1019,5 hPa 0,0 l/m 0 min 0 min 0 W/m 0,0 km/h (0 Bft) 97,87 %
30.10.2022 20:26 15,8 C 14,4 C 10,6 C 87 % 1019,5 hPa 0,0 l/m 0 min 0 min 0 W/m 0,0 km/h (0 Bft) 97,87 %
30.10.2022 20:28 15,8 C 14,4 C 10,6 C 87 % 1019,5 hPa 0,0 l/m 0 min 0 min 0 W/m 0,0 km/h (0 Bft) 100,00 %
30.10.2022 20:30 15,7 C 14,4 C 10,6 C 87 % 1019,6 hPa 0,0 l/m 0 min 0 min 0 W/m 0,0 km/h (0 Bft) 97,87 %
30.10.2022 20:32 15,7 C 14,4 C 10,6 C 87 % 1019,5 hPa 0,0 l/m 0 min 0 min 0 W/m 0,0 km/h (0 Bft) 100,00 %
30.10.2022 20:34 15,7 C 14,4 C 10,6 C 87 % 1019,5 hPa 0,0 l/m 0 min 0 min 0 W/m 0,0 km/h (0 Bft) 100,00 %
30.10.2022 20:36 15,7 C 14,4 C 10,6 C 87 % 1019,5 hPa 0,0 l/m 0 min 0 min 0 W/m 0,0 km/h (0 Bft) 93,62 %
30.10.2022 20:38 15,7 C 14,4 C 10,6 C 87 % 1019,6 hPa 0,0 l/m 0 min 0 min 0 W/m 0,0 km/h (0 Bft) 100,00 %
30.10.2022 20:40 15,7 C 14,4 C 10,6 C 87 % 1019,6 hPa 0,0 l/m 0 min 0 min 0 W/m 0,0 km/h (0 Bft) 100,00 %
30.10.2022 20:42 15,6 C 13,9 C 10,6 C 87 % 1019,6 hPa 0,0 l/m 0 min 0 min 0 W/m 0,0 km/h (0 Bft) 95,74 %
30.10.2022 20:44 15,6 C 13,9 C 10,6 C 87 % 1019,5 hPa 0,0 l/m 0 min 0 min 0 W/m 0,0 km/h (0 Bft) 97,87 %
30.10.2022 20:46 15,6 C 13,9 C 10,0 C 87 % 1019,6 hPa 0,0 l/m 0 min 0 min 0 W/m 0,0 km/h (0 Bft) 100,00 %
30.10.2022 20:48 15,6 C 13,9 C 10,0 C 87 % 1019,6 hPa 0,0 l/m 0 min 0 min 0 W/m 0,0 km/h (0 Bft) 95,74 %
30.10.2022 20:50 15,6 C 13,9 C 10,0 C 87 % 1019,5 hPa 0,0 l/m 0 min 0 min 0 W/m 0,0 km/h (0 Bft) 100,00 %
30.10.2022 20:52 15,5 C 13,9 C 10,0 C 87 % 1019,6 hPa 0,0 l/m 0 min 0 min 0 W/m 0,0 km/h (0 Bft) 97,87 %
30.10.2022 20:54 15,5 C 13,9 C 10,0 C 87 % 1019,6 hPa 0,0 l/m 0 min 0 min 0 W/m 0,0 km/h (0 Bft) 97,87 %
30.10.2022 20:56 15,4 C 13,3 C 10,0 C 87 % 1019,6 hPa 0,0 l/m 0 min 0 min 0 W/m 0,0 km/h (0 Bft) 97,87 %
30.10.2022 20:58 15,4 C 13,3 C 10,0 C 87 % 1019,6 hPa 0,0 l/m 0 min 0 min 0 W/m 0,0 km/h (0 Bft) 97,83 %
30.10.2022 21:00 15,4 C 13,3 C 10,0 C 87 % 1019,6 hPa 0,0 l/m 0 min 0 min 0 W/m 0,0 km/h (0 Bft) 95,74 %
30.10.2022 21:02 15,4 C 13,3 C 10,0 C 87 % 1019,6 hPa 0,0 l/m 0 min 0 min 0 W/m 0,0 km/h (0 Bft) 97,87 %
30.10.2022 21:04 15,3 C 13,3 C 9,4 C 87 % 1019,6 hPa 0,0 l/m 0 min 0 min 0 W/m 0,0 km/h (0 Bft) 97,87 %
30.10.2022 21:06 15,3 C 13,3 C 9,4 C 88 % 1019,7 hPa 0,0 l/m 0 min 0 min 0 W/m 0,0 km/h (0 Bft) 95,74 %
30.10.2022 21:08 15,3 C 13,3 C 9,4 C 88 % 1019,7 hPa 0,0 l/m 0 min 0 min 0 W/m 0,0 km/h (0 Bft) 95,74 %
30.10.2022 21:10 15,3 C 13,3 C 9,4 C 88 % 1019,7 hPa 0,0 l/m 0 min 0 min 0 W/m 0,0 km/h (0 Bft) 95,65 %
30.10.2022 21:12 15,2 C 13,3 C 9,4 C 88 % 1019,7 hPa 0,0 l/m 0 min 0 min 0 W/m 0,0 km/h (0 Bft) 95,74 %
30.10.2022 21:14 15,2 C 13,3 C 9,4 C 88 % 1019,7 hPa 0,0 l/m 0 min 0 min 0 W/m 0,0 km/h (0 Bft) 97,87 %
30.10.2022 21:16 15,2 C 12,8 C 9,4 C 87 % 1019,7 hPa 0,0 l/m 0 min 0 min 0 W/m 0,0 km/h (0 Bft) 97,87 %
30.10.2022 21:18 15,1 C 12,8 C 9,4 C 87 % 1019,7 hPa 0,0 l/m 0 min 0 min 0 W/m 0,0 km/h (0 Bft) 93,62 %
30.10.2022 21:20 15,1 C 12,8 C 9,4 C 88 % 1019,7 hPa 0,0 l/m 0 min 0 min 0 W/m 0,0 km/h (0 Bft) 97,87 %
30.10.2022 21:22 15,1 C 12,8 C 9,4 C 88 % 1019,7 hPa 0,0 l/m 0 min 0 min 0 W/m 0,0 km/h (0 Bft) 95,65 %
30.10.2022 21:24 15,0 C 12,8 C 9,4 C 88 % 1019,7 hPa 0,0 l/m 0 min 0 min 0 W/m 0,0 km/h (0 Bft) 93,62 %
30.10.2022 21:26 14,9 C 12,8 C 9,4 C 88 % 1019,7 hPa 0,0 l/m 0 min 0 min 0 W/m 0,0 km/h (0 Bft) 93,62 %
30.10.2022 21:28 14,9 C 12,8 C 9,4 C 88 % 1019,9 hPa 0,0 l/m 0 min 0 min 0 W/m 0,0 km/h (0 Bft) 95,74 %
30.10.2022 21:30 14,9 C 12,8 C 9,4 C 88 % 1019,9 hPa 0,0 l/m 0 min 0 min 0 W/m 0,0 km/h (0 Bft) 95,74 %
30.10.2022 21:32 14,8 C 12,8 C 9,4 C 88 % 1019,9 hPa 0,0 l/m 0 min 0 min 0 W/m 0,0 km/h (0 Bft) 95,74 %
30.10.2022 21:34 14,8 C 12,8 C 9,4 C 88 % 1019,9 hPa 0,0 l/m 0 min 0 min 0 W/m 0,0 km/h (0 Bft) 95,65 %
30.10.2022 21:36 14,8 C 12,8 C 9,4 C 88 % 1019,9 hPa 0,0 l/m 0 min 0 min 0 W/m 0,0 km/h (0 Bft) 91,49 %
30.10.2022 21:38 14,7 C 12,8 C 9,4 C 88 % 1020,0 hPa 0,0 l/m 0 min 0 min 0 W/m 0,0 km/h (0 Bft) 97,87 %
30.10.2022 21:40 14,7 C 12,8 C 9,4 C 88 % 1020,0 hPa 0,0 l/m 0 min 0 min 0 W/m 0,0 km/h (0 Bft) 97,87 %
30.10.2022 21:42 14,7 C 12,8 C 9,4 C 89 % 1020,0 hPa 0,0 l/m 0 min 0 min 0 W/m 0,0 km/h (0 Bft) 95,74 %
30.10.2022 21:44 14,6 C 12,8 C 9,4 C 89 % 1020,0 hPa 0,0 l/m 0 min 0 min 0 W/m 0,0 km/h (0 Bft) 97,87 %
30.10.2022 21:46 14,6 C 12,8 C 9,4 C 89 % 1020,0 hPa 0,0 l/m 0 min 0 min 0 W/m 0,0 km/h (0 Bft) 97,83 %
30.10.2022 21:48 14,6 C 12,8 C 9,4 C 89 % 1020,0 hPa 0,0 l/m 0 min 0 min 0 W/m 0,0 km/h (0 Bft) 97,87 %
30.10.2022 21:50 14,5 C 12,8 C 9,4 C 89 % 1020,0 hPa 0,0 l/m 0 min 0 min 0 W/m 0,0 km/h (0 Bft) 97,87 %
30.10.2022 21:52 14,4 C 12,8 C 9,4 C 89 % 1020,1 hPa 0,0 l/m 0 min 0 min 0 W/m 0,0 km/h (0 Bft) 100,00 %
30.10.2022 21:54 14,4 C 12,8 C 9,4 C 89 % 1020,1 hPa 0,0 l/m 0 min 0 min 0 W/m 0,0 km/h (0 Bft) 100,00 %
30.10.2022 21:56 14,4 C 12,8 C 9,4 C 89 % 1020,1 hPa 0,0 l/m 0 min 0 min 0 W/m 0,0 km/h (0 Bft) 95,74 %
30.10.2022 21:58 14,3 C 12,8 C 9,4 C 89 % 1020,1 hPa 0,0 l/m 0 min 0 min 0 W/m 0,0 km/h (0 Bft) 97,83 %
30.10.2022 22:00 14,3 C 12,8 C 9,4 C 89 % 1020,1 hPa 0,0 l/m 0 min 0 min 0 W/m 0,0 km/h (0 Bft) 100,00 %
30.10.2022 22:02 14,3 C 12,8 C 9,4 C 89 % 1020,1 hPa 0,0 l/m 0 min 0 min 0 W/m 0,0 km/h (0 Bft) 100,00 %
30.10.2022 22:04 14,3 C 12,8 C 9,4 C 89 % 1020,1 hPa 0,0 l/m 0 min 0 min 0 W/m 0,0 km/h (0 Bft) 100,00 %
30.10.2022 22:06 14,3 C 12,8 C 9,4 C 89 % 1020,0 hPa 0,0 l/m 0 min 0 min 0 W/m 0,0 km/h (0 Bft) 100,00 %
30.10.2022 22:08 14,3 C 12,8 C 9,4 C 89 % 1020,1 hPa 0,0 l/m 0 min 0 min 0 W/m 0,0 km/h (0 Bft) 97,87 %
30.10.2022 22:10 14,3 C 12,8 C 9,4 C 90 % 1020,2 hPa 0,0 l/m 0 min 0 min 0 W/m 0,0 km/h (0 Bft) 100,00 %
30.10.2022 22:12 14,3 C 12,8 C 9,4 C 90 % 1020,3 hPa 0,0 l/m 0 min 0 min 0 W/m 0,0 km/h (0 Bft) 100,00 %
30.10.2022 22:14 14,3 C 12,8 C 9,4 C 90 % 1020,3 hPa 0,0 l/m 0 min 0 min 0 W/m 0,0 km/h (0 Bft) 100,00 %
30.10.2022 22:16 14,3 C 12,8 C 9,4 C 90 % 1020,3 hPa 0,0 l/m 0 min 0 min 0 W/m 0,0 km/h (0 Bft) 100,00 %
30.10.2022 22:18 14,3 C 12,8 C 9,4 C 90 % 1020,3 hPa 0,0 l/m 0 min 0 min 0 W/m 0,0 km/h (0 Bft) 100,00 %
30.10.2022 22:20 14,2 C 12,8 C 9,4 C 90 % 1020,3 hPa 0,0 l/m 0 min 0 min 0 W/m 0,0 km/h (0 Bft) 100,00 %
30.10.2022 22:22 14,2 C 12,8 C 9,4 C 90 % 1020,3 hPa 0,0 l/m 0 min 0 min 0 W/m 0,0 km/h (0 Bft) 100,00 %
30.10.2022 22:24 14,2 C 12,8 C 9,4 C 90 % 1020,4 hPa 0,0 l/m 0 min 0 min 0 W/m 0,0 km/h (0 Bft) 100,00 %
30.10.2022 22:26 14,1 C 12,8 C 9,4 C 90 % 1020,4 hPa 0,0 l/m 0 min 0 min 0 W/m 0,0 km/h (0 Bft) 100,00 %
30.10.2022 22:28 14,2 C 12,8 C 9,4 C 90 % 1020,5 hPa 0,0 l/m 0 min 0 min 0 W/m 0,0 km/h (0 Bft) 100,00 %
30.10.2022 22:30 14,1 C 12,8 C 9,4 C 90 % 1020,6 hPa 0,0 l/m 0 min 0 min 0 W/m 0,0 km/h (0 Bft) 100,00 %
30.10.2022 22:32 14,1 C 12,8 C 9,4 C 90 % 1020,6 hPa 0,0 l/m 0 min 0 min 0 W/m 0,0 km/h (0 Bft) 97,87 %
30.10.2022 22:34 14,1 C 12,8 C 9,4 C 90 % 1020,6 hPa 0,0 l/m 0 min 0 min 0 W/m 0,0 km/h (0 Bft) 97,83 %
30.10.2022 22:36 14,1 C 12,8 C 9,4 C 90 % 1020,7 hPa 0,0 l/m 0 min 0 min 0 W/m 0,0 km/h (0 Bft) 97,87 %
30.10.2022 22:38 14,1 C 12,8 C 9,4 C 90 % 1020,7 hPa 0,0 l/m 0 min 0 min 0 W/m 0,0 km/h (0 Bft) 97,87 %
30.10.2022 22:40 14,1 C 13,3 C 9,4 C 91 % 1020,6 hPa 0,0 l/m 0 min 0 min 0 W/m 0,0 km/h (0 Bft) 97,87 %
30.10.2022 22:42 14,1 C 13,3 C 9,4 C 91 % 1020,6 hPa 0,0 l/m 0 min 0 min 0 W/m 0,0 km/h (0 Bft) 95,74 %
30.10.2022 22:44 14,1 C 13,3 C 10,0 C 91 % 1020,7 hPa 0,0 l/m 0 min 0 min 0 W/m 0,0 km/h (0 Bft) 95,74 %
30.10.2022 22:46 14,1 C 13,3 C 10,0 C 91 % 1020,7 hPa 0,0 l/m 0 min 0 min 0 W/m 0,0 km/h (0 Bft) 97,83 %
30.10.2022 22:48 14,1 C 13,3 C 10,0 C 91 % 1020,7 hPa 0,0 l/m 0 min 0 min 0 W/m 0,0 km/h (0 Bft) 97,87 %
30.10.2022 22:50 14,1 C 13,3 C 10,0 C 91 % 1020,6 hPa 0,0 l/m 0 min 0 min 0 W/m 0,0 km/h (0 Bft) 97,87 %
30.10.2022 22:52 14,1 C 13,3 C 10,0 C 91 % 1020,7 hPa 0,0 l/m 0 min 0 min 0 W/m 0,0 km/h (0 Bft) 97,87 %
30.10.2022 22:54 14,1 C 13,3 C 10,0 C 91 % 1020,7 hPa 0,0 l/m 0 min 0 min 0 W/m 0,0 km/h (0 Bft) 97,87 %
30.10.2022 22:56 14,1 C 13,3 C 10,0 C 91 % 1020,7 hPa 0,0 l/m 0 min 0 min 0 W/m 0,0 km/h (0 Bft) 97,87 %
30.10.2022 22:58 14,1 C 13,3 C 10,0 C 91 % 1020,7 hPa 0,0 l/m 0 min 0 min 0 W/m 0,0 km/h (0 Bft) 97,83 %
30.10.2022 23:00 14,1 C 13,3 C 10,0 C 91 % 1020,7 hPa 0,0 l/m 0 min 0 min 0 W/m 0,0 km/h (0 Bft) 93,62 %
30.10.2022 23:02 14,1 C 13,3 C 10,0 C 91 % 1020,7 hPa 0,0 l/m 0 min 0 min 0 W/m 0,0 km/h (0 Bft) 91,49 %
30.10.2022 23:04 14,1 C 13,3 C 10,0 C 92 % 1020,7 hPa 0,0 l/m 0 min 0 min 0 W/m 0,0 km/h (0 Bft) 97,87 %
30.10.2022 23:06 14,1 C 13,3 C 10,0 C 92 % 1020,7 hPa 0,0 l/m 0 min 0 min 0 W/m 0,0 km/h (0 Bft) 95,74 %
30.10.2022 23:08 14,1 C 13,3 C 10,0 C 92 % 1020,7 hPa 0,0 l/m 0 min 0 min 0 W/m 0,0 km/h (0 Bft) 95,74 %
30.10.2022 23:10 14,1 C 13,3 C 10,0 C 92 % 1020,7 hPa 0,0 l/m 0 min 0 min 0 W/m 0,0 km/h (0 Bft) 95,65 %
30.10.2022 23:12 14,1 C 13,3 C 10,0 C 92 % 1020,7 hPa 0,0 l/m 0 min 0 min 0 W/m 0,0 km/h (0 Bft) 91,49 %
30.10.2022 23:14 14,1 C 13,3 C 10,0 C 92 % 1020,7 hPa 0,0 l/m 0 min 0 min 0 W/m 0,0 km/h (0 Bft) 93,62 %
30.10.2022 23:16 14,1 C 13,3 C 10,0 C 92 % 1020,7 hPa 0,0 l/m 0 min 0 min 0 W/m 0,0 km/h (0 Bft) 91,49 %
30.10.2022 23:18 14,1 C 13,3 C 10,0 C 92 % 1020,8 hPa 0,0 l/m 0 min 0 min 0 W/m 0,0 km/h (0 Bft) 91,49 %
30.10.2022 23:20 14,1 C 13,3 C 10,0 C 92 % 1020,8 hPa 0,0 l/m 0 min 0 min 0 W/m 0,0 km/h (0 Bft) 93,48 %
30.10.2022 23:22 14,1 C 13,3 C 10,0 C 92 % 1020,9 hPa 0,0 l/m 0 min 0 min 0 W/m 0,0 km/h (0 Bft) 95,74 %
30.10.2022 23:24 14,1 C 13,3 C 10,0 C 92 % 1021,0 hPa 0,0 l/m 0 min 0 min 0 W/m 0,0 km/h (0 Bft) 95,74 %
30.10.2022 23:26 14,2 C 13,3 C 10,0 C 92 % 1021,0 hPa 0,0 l/m 0 min 0 min 0 W/m 0,0 km/h (0 Bft) 91,49 %
30.10.2022 23:28 14,2 C 13,3 C 10,0 C 93 % 1021,0 hPa 0,0 l/m 0 min 0 min 0 W/m 0,0 km/h (0 Bft) 95,74 %
30.10.2022 23:30 14,2 C 13,3 C 10,0 C 93 % 1021,0 hPa 0,0 l/m 0 min 0 min 0 W/m 0,0 km/h (0 Bft) 95,74 %
30.10.2022 23:32 14,2 C 13,3 C 10,0 C 93 % 1021,0 hPa 0,0 l/m 0 min 0 min 0 W/m 0,0 km/h (0 Bft) 95,74 %
30.10.2022 23:34 14,2 C 13,3 C 10,0 C 93 % 1021,0 hPa 0,0 l/m 0 min 0 min 0 W/m 0,0 km/h (0 Bft) 95,65 %
30.10.2022 23:36 14,2 C 13,3 C 10,0 C 93 % 1021,0 hPa 0,0 l/m 0 min 0 min 0 W/m 0,0 km/h (0 Bft) 93,62 %
30.10.2022 23:38 14,3 C 13,3 C 10,0 C 93 % 1021,1 hPa 0,0 l/m 0 min 0 min 0 W/m 0,0 km/h (0 Bft) 93,62 %
30.10.2022 23:40 14,3 C 13,3 C 10,0 C 93 % 1021,0 hPa 0,0 l/m 0 min 0 min 0 W/m 0,0 km/h (0 Bft) 95,74 %
30.10.2022 23:42 14,3 C 13,3 C 10,0 C 93 % 1021,0 hPa 0,0 l/m 0 min 0 min 0 W/m 0,0 km/h (0 Bft) 97,87 %
30.10.2022 23:44 14,3 C 13,3 C 10,0 C 93 % 1021,0 hPa 0,0 l/m 0 min 0 min 0 W/m 0,0 km/h (0 Bft) 100,00 %
30.10.2022 23:46 14,3 C 13,3 C 10,0 C 93 % 1021,0 hPa 0,0 l/m 0 min 0 min 0 W/m 0,0 km/h (0 Bft) 87,23 %
30.10.2022 23:48 14,3 C 13,3 C 10,0 C 93 % 1021,0 hPa 0,0 l/m 0 min 0 min 0 W/m 0,0 km/h (0 Bft) 80,85 %
30.10.2022 23:50 14,3 C 13,3 C 10,0 C 93 % 1021,0 hPa 0,0 l/m 0 min 0 min 0 W/m 0,0 km/h (0 Bft) 93,62 %
30.10.2022 23:52 14,3 C 13,3 C 10,0 C 93 % 1021,0 hPa 0,0 l/m 0 min 0 min 0 W/m 0,0 km/h (0 Bft) 76,60 %
30.10.2022 23:54 14,3 C 13,3 C 10,0 C 93 % 1021,0 hPa 0,0 l/m 0 min 0 min 0 W/m 0,0 km/h (0 Bft) 76,60 %
30.10.2022 23:56 14,3 C 13,3 C 10,0 C 93 % 1021,0 hPa 0,0 l/m 0 min 0 min 0 W/m 0,0 km/h (0 Bft) 95,65 %
30.10.2022 23:58 14,3 C 13,3 C 10,0 C 93 % 1021,0 hPa 0,0 l/m 0 min 0 min 0 W/m 0,0 km/h (0 Bft) 80,85 %
_ Min-Zeit 07:18 05:02 04:38 13:28 15:15 - - - - 02:00 09:02
Minimum _ 12,4 C 11,1 C 8,3 C 73 % 1016,4 hPa - - - - 0,0 km/h (0 Bft) 25,53 %
_ Max-Zeit 15:18 10:30 13:08 08:52 23:38 00:00 15:15 00:00 10:24 13:12 00:00
Maximum _ 21,0 C 24,4 C 15,6 C 96 % 1021,1 hPa 0,0 l/m 5 min 0 min 330 W/m 22,5 km/h
S-SO (4 Bft)
100,00 %
Durchschnitt _ 16,3 C 15,6 C 11,5 C 86 % 1018,0 hPa #0,0 l/m #3:42 h #0 min. 126 W/m 4,0 km/h (1 Bft) 96,39 %
© 2022 W. Hausmann